GFSFLT1_con_sbcape_000.txt.gz
CAPE
121 180 245 185 107 128 176 383 491 745 876 937 1216 1501 1552 1626 1055 135 0 0 0 0 0 0 0 0 0 0 0 0 0 0 0
74 145 267 376 228 200 240 394 596 805 1039 1119 1219 1417 1544 851 399 0 0 0 0 0 0 0 0 0 0 0 0 0 0 0 0
39 82 297 333 450 435 411 461 690 887 1085 1240 1246 1149 839 515 59 0 0 0 0 0 0 0 0 0 0 0 0 0 0 0 0
2 17 130 224 595 707 634 584 697 949 1172 1331 1278 864 354 164 3 0 0 0 0 0 0 0 0 0 0 0 0 0 0 0 0
0 2 90 127 562 773 809 714 738 990 1219 1379 1439 838 179 29 0 0 0 0 0 0 0 0 0 0 0 0 0 0 0 0 0
0 2 31 79 272 651 714 651 875 1045 1244 1308 1399 826 46 6 0 1 1 0 0 0 0 0 0 0 0 0 0 0 0 0 0
0 0 8 68 96 263 422 395 616 986 1199 1213 1103 462 41 18 6 11 23 0 0 0 0 0 0 0 0 0 0 0 0 0 0
0 0 0 14 95 107 159 221 298 628 887 1032 829 413 143 111 68 46 3 9 0 0 0 0 0 0 0 0 0 0 0 0 0
0 0 0 0 10 52 83 97 126 527 794 921 854 559 374 305 127 39 0 22 141 0 0 0 0 0 0 0 0 0 0 18 25
0 0 0 0 0 0 0 0 49 403 699 839 818 708 678 350 8 10 0 0 2 3 7 0 0 0 0 2 21 0 4 4 82
0 0 0 0 0 0 0 0 50 294 556 794 870 814 747 141 20 0 0 0 0 0 0 0 0 0 11 13 26 10 4 6 16
0 0 5 35 0 0 1 56 154 370 572 798 805 828 513 237 87 85 99 2 0 0 0 0 12 47 77 64 93 68 28 1 7
0 0 0 0 5 13 174 249 403 448 507 691 739 608 495 356 104 0 0 18 11 0 0 4 27 43 15 17 25 22 0 0 8
0 29 113 124 376 512 378 289 391 426 365 577 550 365 383 535 326 163 29 0 0 0 17 28 55 33 0 18 66 63 0 0 0
4 32 117 239 384 544 492 280 461 302 471 274 298 270 206 96 80 122 0 0 0 0 0 0 0 13 0 0 0 0 0 0 0
103 160 264 524 678 582 233 137 188 235 51 165 126 1 0 6 0 0 0 0 0 0 0 0 29 59 81 114 1 0 0 0 0
173 184 248 380 446 291 39 25 5 0 51 60 0 0 0 0 0 0 0 0 0 0 0 0 10 54 63 2 0 0 0 0 0
279 133 188 248 231 112 49 22 1 0 18 0 0 0 0 0 0 0 0 7 0 0 0 3 26 22 0 0 0 0 0 0 0
260 254 239 163 80 155 20 0 0 0 0 0 0 1 1 0 0 0 0 2 2 0 0 0 0 0 0 0 0 0 0 0 0
108 233 331 182 31 1 0 0 0 0 0 0 0 3 0 0 0 0 0 2 1 0 0 0 0 0 0 0 0 0 0 0 0

GFSFLT1_con_sbcape_003.txt.gz
CAPE
233 272 329 422 661 944 941 1030 1218 1490 1988 2374 2168 2124 2798 3024 3084 2798 2837 2621 1760 1221 1134 833 294 308 373 550 177 17 60 28 9
317 366 542 618 659 809 1143 1274 1599 1795 2104 2331 2262 1997 2778 2810 3157 3051 2840 2452 1512 1083 1078 426 296 297 378 244 0 14 95 0 16
326 561 674 707 1003 1009 1211 1221 1511 1644 2005 2254 2350 1980 2324 2516 2801 2956 2901 2564 1335 621 670 322 323 311 200 132 32 25 165 15 3
294 614 828 1030 1202 1069 1197 1270 1336 1721 1709 2110 2042 2124 2679 2869 2800 2720 2769 1908 1588 334 385 438 338 337 189 169 147 139 204 251 37
105 650 997 953 1053 1079 1108 1348 1254 1446 1603 1646 2154 2500 2656 2452 2523 1514 1477 1801 164 304 225 297 354 347 302 295 256 281 286 197 0
119 395 661 955 1038 1336 1327 1384 1798 1501 1807 1740 1875 2301 2124 2216 1957 1542 1933 75 141 60 166 84 176 288 393 350 330 449 521 354 112
127 189 743 884 1013 1709 1914 2062 2135 2083 1850 1868 1912 1949 2096 2309 1612 1338 401 209 21 0 25 82 85 258 562 384 444 414 294 120 240
109 166 438 881 1005 1800 2009 2095 1870 1895 1751 2075 2215 2320 2133 1877 1403 950 345 85 9 0 0 11 0 34 338 368 294 187 233 308 444
207 220 335 700 913 1016 1255 1499 1464 1456 1678 1947 2114 2133 1970 1600 1190 551 313 270 13 0 0 0 101 77 186 325 182 56 13 161 581
503 493 415 520 742 902 924 982 1131 1154 1387 1563 1785 1883 1732 1366 884 486 601 358 214 25 0 0 12 198 160 546 474 148 19 8 465
386 531 523 407 255 406 556 520 671 935 1284 1654 1791 1815 1632 1266 818 672 470 600 354 167 0 20 329 381 535 491 626 183 6 0 402
77 157 404 480 344 350 474 392 639 974 1257 1582 1779 1792 1719 1118 708 738 627 550 512 260 163 204 294 144 370 457 526 14 23 67 238
66 278 570 591 590 583 820 764 851 1213 1390 1573 1737 1748 1681 1149 735 628 550 671 631 355 291 111 79 229 456 230 513 23 69 106 59
490 430 707 919 964 1004 1125 1349 1392 1602 1658 1770 1785 1688 1316 1059 895 844 837 854 518 301 300 211 478 552 693 419 499 311 1 0 110
653 788 945 1230 1482 1585 1358 1514 1839 1881 1877 1670 1394 1421 1044 1065 842 814 660 623 381 362 450 597 541 600 613 174 320 0 0 0 7
814 1200 1401 1372 1379 1500 1381 1465 1596 1506 1116 843 1018 1044 818 984 848 591 484 383 387 324 395 386 431 313 255 212 208 60 1 1 1
759 1018 1388 1627 1778 1660 1282 969 798 932 844 1090 1008 788 835 963 1077 798 470 404 306 181 183 74 38 122 246 486 183 35 0 0 0
1274 1359 1338 1550 1818 1833 1457 1079 1052 969 1074 1051 1099 1023 1059 967 962 551 520 210 44 39 70 2 180 189 406 607 363 85 0 0 0
1415 1487 1606 1702 1692 1261 941 1023 964 931 1060 1121 1161 1052 918 720 397 158 43 0 0 0 0 0 0 0 105 0 0 0 0 0 0
235 528 958 1736 1575 1308 1059 949 894 889 783 725 762 615 538 309 162 344 241 10 0 0 0 0 0 0 0 0 0 0 0 0 0

GFSFLT1_con_sbcape_006.txt.gz
CAPE
407 639 341 408 602 819 1158 1281 1548 1815 2489 3296 3270 3245 3590 4055 3890 3180 2890 2737 1625 965 608 365 565 1715 732 359 284 263 32 0 8
199 623 594 354 598 795 1066 1328 1816 2425 3132 3002 3029 2976 3411 3706 4051 3564 2995 2780 2548 1487 1270 361 1054 1165 699 196 326 82 33 0 10
239 555 670 496 571 770 1013 1280 1567 1957 2311 2967 2788 2771 2934 3055 3240 3448 3241 3103 3211 2468 1799 1473 945 848 365 254 190 61 96 9 7
150 453 806 787 658 709 1060 1152 1365 1789 2156 2444 2701 2706 3320 3116 2923 3007 3396 3342 3438 3033 2585 1627 1121 881 401 302 225 148 188 129 0
9 240 745 962 931 971 1035 1302 1255 1444 1769 2170 2532 3125 3354 2907 2894 2988 3197 3882 3274 2691 2794 1400 1129 751 443 672 218 209 303 189 7
114 443 790 1107 1126 1309 1374 1376 1721 1559 1850 2019 2190 2602 2756 2825 2825 2997 3226 3346 2877 2917 1749 904 468 433 674 713 561 292 345 386 321
195 728 916 1228 1256 1570 1661 2055 2732 2687 1972 2073 2235 2331 2709 3233 2999 2822 2979 2890 1707 1067 815 401 117 286 332 173 447 640 622 349 427
213 851 946 1328 1502 2240 2758 2630 2686 2566 2382 2373 2379 2567 2653 3001 3146 3073 2775 2415 1479 665 446 382 0 93 16 135 490 198 570 374 231
244 960 1052 1418 1698 1936 2359 2377 2566 2647 2642 2501 2637 2798 2872 2983 3274 3069 2810 2241 1201 801 517 186 51 0 0 6 147 0 0 122 309
276 914 1117 1314 1679 1863 2291 2389 2668 2647 2643 2609 2701 2921 2963 3095 3183 2849 2361 1728 1361 787 528 156 98 104 30 79 399 28 0 13 172
296 949 1146 1283 1410 1773 1965 1907 2039 2160 2339 2546 2684 2899 2915 2959 2817 2548 2163 1985 1343 961 339 262 399 479 304 269 409 267 0 0 420
544 1037 1363 1377 1339 1576 1802 1538 1781 1916 2062 2289 2463 2655 2714 2644 2413 2201 1694 1541 1475 1393 775 562 724 749 643 608 716 0 0 0 585
295 814 1029 1181 1094 1365 1348 1319 1474 1778 1914 2244 2473 2615 2652 2549 2247 2207 1897 1691 1709 1467 1184 866 646 755 734 596 1297 0 0 0 670
631 996 1176 1267 1210 1127 1351 1325 1546 1714 1903 2145 2341 2554 2650 2370 2147 2211 2352 1967 1726 1517 1079 987 1020 838 863 1043 469 768 0 0 591
1214 1131 976 910 1408 1750 1743 1782 2053 2280 2385 2544 2670 2714 2558 2084 2028 1777 1869 1799 1326 884 1107 1202 990 1464 1482 1214 1365 201 0 0 8
913 875 864 1007 1544 1943 2141 2347 2390 2625 3092 2726 2676 2128 1731 1874 1913 1423 1222 1148 822 793 1009 1041 1078 1299 1180 1804 1067 7 0 1 1
1199 1337 1213 1245 1447 1878 2344 2389 2450 2750 2147 2234 2377 2121 2087 1644 1363 1497 1154 1048 1131 1199 1114 1033 1687 1391 785 539 776 292 79 0 2
1340 1435 1347 1280 1470 2065 2282 2262 2258 2062 1973 1846 1834 1726 1733 1269 1093 1065 1314 592 180 789 112 208 547 457 273 214 1157 533 200 85 170
1687 1863 1889 1978 2016 2291 2359 2322 2236 2175 1780 1985 1854 1378 1306 1333 1402 1430 1281 731 108 0 0 1 1 1 89 22 6 0 0 0 0
229 934 1363 2183 1949 2067 2069 2156 2130 2056 1995 1768 1597 1448 1375 1172 759 823 894 823 474 151 0 0 0 0 0 0 0 0 0 0 0

GFSFLT1_con_sbcape_009.txt.gz
CAPE
94 560 662 289 577 1160 1884 1773 2556 2801 3707 4612 4710 4404 4611 4629 4634 2667 2278 2864 2057 1178 831 919 2825 1735 1309 810 342 410 335 51 13
42 175 588 514 373 630 1365 1633 2466 2883 3740 4310 4436 3615 4760 4763 4635 4468 2722 3297 3714 1995 2157 904 880 1505 1203 898 231 401 205 34 337
22 52 473 628 459 528 1037 1137 1800 2693 3396 4113 3847 4038 4279 4181 4383 4664 4472 4732 4276 3271 2594 2445 2066 1888 1389 817 759 878 538 444 377
38 58 326 684 604 553 733 872 1417 2009 2645 3579 3838 3938 3937 4138 3896 4054 4551 4433 4247 4223 3343 3271 2343 2432 1923 1007 813 759 941 500 174
6 49 197 582 724 636 740 1110 1054 1299 1635 1915 2942 3573 4228 4282 4308 4219 4103 4569 4569 4281 3780 3527 2689 2351 1862 1081 588 202 871 548 365
43 69 96 480 703 862 1022 999 1360 982 1533 1299 1777 3082 3239 3972 3920 4309 4229 4576 4450 4455 4345 3692 2478 2362 2035 1102 1005 1051 1098 1050 579
22 88 424 448 887 1362 1594 1790 1988 1748 1525 1133 1526 2113 2428 3565 4082 4124 4084 4527 4473 4552 4152 3932 2687 2284 1722 1313 1026 1019 939 978 936
0 13 626 923 1210 2428 2792 2693 2774 2574 2070 2250 1988 2876 2907 3585 4381 4294 4316 4285 4631 4406 4157 3669 2501 2123 1427 1209 599 389 1089 668 490
0 0 49 1021 1389 1749 2932 3147 3510 3239 3038 3053 2867 3675 3580 4106 4720 4588 4581 4622 4695 4222 3631 3065 2265 1224 721 400 143 0 32 486 192
8 26 87 857 1352 1818 2549 2382 3453 3589 3770 3369 3641 4179 4500 4617 4993 4914 4916 4580 4139 3554 2716 2492 1810 955 150 151 433 0 10 0 273
117 286 211 435 1160 1896 2826 2354 2437 3151 3215 4225 4449 4621 4545 4804 4955 4924 4791 4212 3573 2786 2433 2257 1519 751 516 523 727 21 1 0 294
0 106 175 624 1402 1910 3405 2974 3589 3800 3319 3849 3811 3845 4229 4402 4258 4152 3910 3305 3020 2480 2170 1978 1047 604 524 944 1111 32 0 1 642
420 494 156 1158 1656 2153 2699 3267 2756 3159 2927 3190 3384 3607 3637 4029 4083 3732 3242 3071 2962 2519 2472 1851 1196 818 1076 1133 1316 75 1 28 437
531 615 1345 1880 2111 2970 3269 3167 2584 3278 3055 2813 2740 2939 3027 3381 3270 3388 3170 2751 2881 2527 2297 1782 1411 1053 1435 1622 1508 1027 0 0 565
935 1218 1637 1759 2364 2710 2618 2911 3088 3299 3451 3609 3832 3647 3344 3322 3088 2798 2659 2586 2516 2258 1997 1630 1561 1840 1832 1423 1681 545 0 0 0
1789 1750 1830 1731 1727 2590 2431 3105 3286 3675 4382 4112 3879 3706 3494 3119 2731 2481 2416 2664 2134 1464 1389 1184 1427 1098 1689 1736 1875 921 1 1 0
1256 1223 1696 1531 1751 2361 2769 3159 2903 3590 3411 3365 3356 2908 2548 2397 2258 1926 1676 1594 1271 1052 963 1206 1523 1493 1509 1497 1234 997 212 0 0
1336 1362 1832 1960 1903 2183 2420 2677 2909 2583 2885 3062 2758 2934 2574 2191 1790 1608 1134 661 676 883 194 567 986 1202 1304 784 347 479 72 5 18
1393 1396 1541 2079 1920 2268 2558 2644 2649 2616 2567 2692 2441 2324 2078 1756 1523 1276 1066 426 2 0 0 2 1 0 53 44 0 0 0 0 0
728 1522 1514 1664 1885 2234 2516 2576 2651 2352 2497 2518 2442 1893 1851 1399 1263 1411 1560 1057 975 563 0 0 0 0 0 0 0 0 0 0 0

GFSFLT1_con_sbcape_012.txt.gz
CAPE
424 746 579 656 769 1066 1559 1545 2029 2455 3319 3730 4058 3701 4126 3742 3529 3528 3173 3250 2976 2743 2081 1701 1972 1854 1707 1843 1138 1161 1308 1068 450
197 709 716 548 1000 989 1600 1598 1952 2390 3482 3855 4118 4085 4152 4133 3861 3674 3372 3066 2999 3253 2385 2829 1762 1720 2108 1474 1266 1279 1496 440 486
64 43 816 812 680 1206 1500 1735 1903 2471 3005 3860 4202 4173 4109 4062 4133 3678 3188 3223 3425 2469 2968 2328 2327 2116 1883 1536 1180 864 1108 395 910
41 32 264 736 790 838 1441 1833 1904 2306 2622 3652 4104 4117 4060 4067 4025 3984 3467 3889 3287 3529 2771 2495 2463 2168 1822 1597 1127 1119 914 601 388
53 49 173 444 963 801 1108 1478 1700 2162 2602 3178 3748 3899 3952 3977 4049 4016 3976 3434 3886 3328 3862 3017 2365 2265 2000 1646 752 1123 609 371 213
200 205 484 549 719 920 991 1140 1517 1961 2337 2712 3470 3637 3665 3773 3813 3970 3893 4037 3448 4161 3578 3099 2320 2370 2038 1742 772 983 651 478 570
188 523 872 1003 914 1269 1094 1232 1513 1770 2105 2324 2859 3254 3363 3516 3651 3748 3658 3868 4068 3745 3846 3278 3063 2362 2099 1875 928 757 552 737 820
155 604 1038 1178 1478 1963 1615 1734 1696 1632 1766 1843 2013 2768 3137 3447 3815 3728 3800 3767 4122 4015 3951 3870 3494 2930 2296 2041 1031 710 890 897 846
276 259 366 1322 1700 3064 3160 2180 1945 1717 1679 1706 1895 2238 2663 3077 3585 3951 3777 3976 3921 4231 4165 4220 3741 3141 2232 1909 1016 262 393 732 832
408 339 297 1413 1927 2156 2871 2881 2422 1949 1805 1977 1916 2565 2726 2918 3542 3947 4053 3976 4032 4279 4297 4194 3698 3328 2199 1530 1037 0 0 218 695
242 308 219 336 852 2102 2631 2877 2626 2659 2363 2573 2495 3667 3264 3485 4112 4296 4220 4221 4249 4432 4360 3985 3478 2685 1460 903 542 125 23 2 82
21 40 780 464 86 1889 2696 2942 2917 3407 3012 2748 3794 3365 4630 4128 5033 4793 4762 4742 4681 4495 3799 2932 2400 1604 674 495 730 36 6 0 55
4 9 122 549 331 2303 3358 3354 3200 3366 3692 3440 3233 4295 4442 5008 5021 4950 4888 4790 4364 3053 2416 2225 1913 994 723 587 818 765 61 0 315
649 132 382 1574 3051 2911 3519 3615 3516 3660 3819 3989 4020 4533 4546 4828 4917 4957 4833 4538 3296 2407 2477 2622 1701 1111 894 923 725 1265 0 0 658
1640 843 918 3037 3569 4082 4067 3948 4029 4174 4245 4439 4556 4489 4465 4626 4686 3833 3788 3384 2730 2749 2373 1922 1632 1289 1148 1285 1610 39 0 0 12
1234 1143 2930 2691 3753 4123 4124 4552 4039 4149 4397 4092 4013 4029 4257 4217 3890 3473 3131 2771 2701 2440 2266 1811 1498 1664 1611 1929 1880 1104 6 0 0
2674 2767 3062 3123 3084 3414 3680 3859 4085 4327 4345 4222 4134 4104 3715 3270 2641 2544 2577 2330 2206 1847 1687 1499 1624 1814 2157 1805 1710 884 123 6 0
2755 2736 2821 3006 3139 3594 3959 4403 4034 4060 4243 4026 3253 2891 2647 2155 1812 1772 1202 112 859 1357 0 337 1901 1964 1693 1286 1174 990 344 93 0
2464 2607 2497 2641 3122 3432 3445 3496 3587 3788 3882 3263 3053 2608 2247 1670 1691 1252 716 81 0 0 0 0 0 0 521 0 0 0 0 0 0
1454 1650 2167 2831 3196 3323 3221 3208 3042 3310 3654 3418 2843 2372 2310 1941 1634 1618 1170 701 367 0 0 0 0 0 0 0 0 0 0 0 0

GFSFLT1_con_sbcape_015.txt.gz
CAPE
16 26 19 2 206 397 666 757 1329 1948 2195 2048 2372 2486 2179 1564 2186 1432 1226 1391 1851 1561 1527 1286 1120 790 286 122 26 514 264 194 68
69 4 1 30 103 319 638 736 1495 1581 2576 2416 2559 2584 2642 2203 1896 2205 2042 1893 1792 1572 1018 1009 1094 871 443 196 100 69 312 214 28
13 3 3 49 73 340 665 803 1322 1543 2497 2604 2708 2277 2902 2715 2337 2010 2037 2189 1840 2052 1284 1410 921 1089 617 709 187 162 402 57 154
42 23 11 87 127 388 794 927 1278 1603 2166 2676 2817 2841 2599 2970 2742 2530 2087 2352 1909 1561 1740 1086 939 1015 1053 598 342 358 385 43 35
14 0 55 138 264 347 945 1053 1088 1563 2576 2691 2917 3066 2927 2936 2989 2970 2565 2238 2049 2140 1442 1399 1360 1058 1088 754 455 252 340 69 49
9 12 108 333 213 610 1062 1138 1080 1557 2181 2971 3085 3260 3199 3041 2870 3106 3002 2468 2366 2269 2262 1753 1425 1456 1066 912 686 370 377 122 5
0 168 10 166 307 647 933 1264 1230 1364 1872 2759 3169 3398 3283 3117 2971 2951 3012 2945 2303 2508 2602 2378 1254 1243 1195 951 711 326 351 140 39
4 9 65 300 373 426 847 1200 1290 1398 1696 1943 2906 3147 3209 3009 3022 3033 3093 3000 3055 2591 2596 2502 2074 1344 1305 1115 622 319 284 264 195
1 0 530 705 538 471 573 795 1027 1341 1581 1898 2270 2875 2983 2884 2887 2946 3011 3033 2972 3162 2691 2813 2187 2011 1531 1276 1117 532 375 305 356
14 10 416 557 675 751 675 784 979 1270 1577 1693 1993 2404 2756 2749 2656 2895 2927 2989 2937 3234 3267 3124 3056 2616 1971 1376 1320 411 147 338 358
4 1 89 559 805 1767 1126 1104 997 1264 1380 1674 1786 1857 2450 2538 2749 2757 3093 3044 3181 3103 3388 3291 3294 2912 2064 1514 687 104 24 4 146
0 0 0 0 638 1051 2033 1519 1233 1121 1152 1470 1456 1572 1894 2344 2485 2852 3073 3246 3233 3237 3414 3351 2975 2064 1139 549 328 88 1 0 0
0 0 0 0 0 652 1554 1981 1663 1308 1245 1420 1296 1382 1990 2172 2353 2890 3326 3378 3301 3283 3084 2270 1874 954 536 302 206 40 15 0 3
962 663 0 0 211 1332 1595 2027 2093 1778 1605 1379 1995 1438 3575 2802 3391 3808 3674 3535 2807 2066 1850 1788 1255 748 397 205 246 306 1 0 0
732 700 1727 168 1488 1616 2295 2243 2631 2618 2324 2466 2820 3752 4084 4319 4238 4227 3178 2538 1822 1623 1836 1573 1039 742 609 565 358 401 286 0 0
757 2631 3258 3217 3269 3436 3553 3052 3105 3477 3778 3739 3701 3790 3747 3371 2996 2521 2113 1810 1794 1715 1420 1334 1085 879 739 735 807 50 33 0 0
2470 2647 2845 2951 3090 3138 3274 3411 3470 3522 3315 3374 3443 3222 2783 2496 2350 2042 1867 1710 1517 1516 1264 1205 1075 1019 907 845 570 49 1 1 0
2013 2297 2298 2726 3071 3283 3262 3358 3332 3272 3358 3125 2849 2291 1829 1744 1745 943 0 0 187 234 0 473 934 1013 764 609 696 406 0 0 0
210 298 2077 2887 3055 3150 3157 3195 3014 2686 2497 2353 1976 1580 1432 1393 496 89 0 0 0 0 0 0 0 73 138 0 184 204 1 0 0
0 1 50 2087 2437 2509 2588 2613 2529 2403 2085 1964 1860 1562 1302 1024 683 336 144 0 0 0 0 0 0 0 0 0 0 0 0 0 0

GFSFLT1_con_sbcape_018.txt.gz
CAPE
0 0 9 3 9 120 93 204 673 1144 990 882 1372 1502 1287 1158 1046 929 918 591 828 1218 1262 1223 1065 687 150 0 0 0 0 0 0
0 0 0 0 7 80 170 243 778 1091 1305 1150 1461 1446 1409 1496 1387 1122 1100 717 1200 1064 1204 1048 913 684 140 12 0 83 66 21 0
2 1 1 1 0 126 260 217 764 1140 1482 1404 1603 1753 1498 1363 1492 1604 1288 817 1120 1149 1006 1020 815 553 153 53 4 49 67 55 1
33 32 6 18 21 76 231 356 780 1317 1521 1464 1701 1930 1864 1716 1404 1279 1647 1586 1479 1306 968 702 791 567 251 115 51 0 130 6 5
71 72 27 6 30 44 163 516 813 1252 1791 1675 1740 1996 2051 2038 1970 1719 1509 1577 1776 1448 1277 653 767 663 408 277 164 69 41 31 21
33 48 0 0 1 22 198 548 714 1269 1678 1999 2006 2101 2087 2380 2271 2157 1972 1672 1595 1599 1418 942 707 649 739 393 328 174 123 63 11
0 0 0 0 36 54 290 639 738 1242 1453 2157 2227 2357 2227 2296 2518 2386 2331 2145 1860 1730 1718 1119 948 751 771 737 391 203 202 147 8
9 0 0 29 7 118 405 773 836 1146 1556 1956 2297 2429 2588 2441 2531 2607 2560 2468 2183 1880 1978 1768 1087 1000 898 695 625 412 231 185 72
0 0 0 0 63 238 278 782 915 1039 1411 2199 2370 2608 2659 2757 2691 2599 2585 2695 2621 2107 2001 2077 1395 1012 1000 796 749 587 237 276 174
0 0 0 2 98 214 425 800 985 1030 1468 2016 2593 2676 2869 2898 2831 2751 2675 2637 2647 2682 2217 2034 1843 1183 1068 997 986 678 119 146 168
0 0 0 51 239 291 581 827 1037 1138 1349 1767 2493 2670 2821 2998 2842 2787 2731 2749 2748 2736 2825 2354 2342 1918 1421 1324 1152 715 5 108 272
0 0 0 0 376 331 459 676 962 1124 1295 1684 1895 2416 2638 2829 2775 2648 2725 2655 2747 2771 2941 2897 2755 2740 2071 1606 1395 390 0 66 144
0 0 0 0 202 1002 581 584 659 923 1176 1496 1765 1986 2381 2660 2634 2541 2633 2746 2768 2834 2929 2987 2980 2411 1821 1619 294 0 3 2 0
217 0 0 0 0 357 1441 859 678 816 978 1251 1570 1870 1925 2316 2480 2516 2528 2825 2847 2852 2965 2584 2011 1080 320 421 395 19 0 0 0
518 340 291 0 0 0 157 1361 983 828 886 1025 1363 1493 1444 1681 2104 2259 2600 2879 2851 2722 2262 1788 778 381 316 293 136 67 0 0 0
654 1547 1877 2023 0 0 37 946 1407 1140 1038 1005 1187 1118 1672 1844 2048 2588 2875 2692 2230 1928 1538 1210 847 587 442 373 92 3 0 0 0
938 925 784 1846 2490 2461 2418 1894 1740 1466 1493 1909 1995 2236 3186 3187 2917 2681 2410 1988 1764 1550 1136 863 688 657 619 375 236 0 1 1 1
0 0 0 0 652 2101 2747 3004 3000 2973 2524 3235 3085 2830 2614 2269 1619 1219 199 1 487 644 443 872 888 560 419 320 230 31 0 0 0
0 0 0 0 0 0 0 0 2659 2887 2712 2501 2248 1943 1347 286 32 3 2 0 1 0 0 0 467 504 217 1 141 118 0 0 0
0 0 0 0 0 0 0 0 22 1909 1723 1877 1818 1276 468 78 9 0 0 0 0 0 0 0 2 18 3 35 0 0 0 0 0

GFSFLT1_con_sbcape_021.txt.gz
CAPE
0 0 0 12 21 27 91 130 437 509 435 843 948 936 839 672 587 400 350 119 220 525 1073 1114 1087 817 616 60 0 0 0 0 0
0 0 0 3 7 4 56 77 217 487 417 553 1177 1174 1053 859 658 555 497 243 233 497 837 1012 851 905 608 59 0 0 0 0 0
0 0 0 0 0 15 36 86 90 464 537 467 738 1234 1113 977 856 753 596 446 522 543 824 907 679 876 479 97 0 0 0 0 0
0 0 0 0 5 11 26 41 50 359 650 589 570 972 1105 1072 1020 940 739 642 606 808 819 737 718 747 485 129 11 0 0 3 0
0 0 0 0 21 13 23 64 80 425 666 779 719 949 1043 1042 1123 1177 1111 943 804 808 897 709 751 620 411 188 54 0 40 20 15
0 0 0 0 0 0 1 46 140 529 736 964 930 1026 1219 1163 1105 1077 1218 1331 1225 1104 1062 768 698 636 559 261 96 28 0 15 6
0 0 0 0 0 0 2 20 228 514 928 1071 1114 1254 1398 1464 1412 1319 1146 1203 1308 1363 1267 860 727 687 646 456 269 129 61 4 0
0 0 0 0 0 0 0 3 252 490 865 1220 1258 1367 1567 1593 1634 1642 1574 1438 1286 1214 1283 1301 780 615 622 588 390 318 143 69 25
0 0 0 0 0 0 0 19 269 446 912 1242 1514 1560 1699 1731 1858 1892 1877 1838 1706 1472 1327 1383 974 777 653 611 695 461 216 210 163
0 0 0 0 0 0 0 17 310 496 909 1147 1783 1820 1847 1869 1847 2048 2108 2043 1995 1803 1561 1521 1104 1066 939 713 729 574 212 116 238
0 0 0 0 0 0 0 117 416 614 896 1247 1694 1951 2007 2127 2082 2055 2168 2208 2232 2141 1791 1727 1659 1217 1016 1087 1028 498 69 97 328
0 0 0 0 0 0 12 162 535 817 938 1176 1794 2009 2134 2265 2423 2332 2244 2256 2293 2340 2220 1787 1856 1572 1341 1336 1354 704 116 1 354
0 0 0 0 0 0 40 294 618 883 960 1276 1810 2151 2263 2443 2538 2516 2434 2373 2339 2363 2458 2394 1990 1994 1877 1613 1508 554 20 62 341
0 0 0 0 0 128 131 381 816 1014 1036 1174 1517 2079 2358 2407 2617 2582 2498 2428 2392 2511 2525 2624 2475 2544 2236 1402 671 3 0 163 217
785 1631 1916 1409 0 0 38 198 637 955 1049 1170 1351 1597 1941 2248 2402 2586 2394 2431 2431 2554 2625 2775 2793 2025 1431 1003 95 0 0 115 91
2 24 822 1764 1979 1306 0 4 521 575 933 1103 1241 1343 1561 1751 2225 2389 2312 2438 2482 2630 2679 2704 1708 1489 1225 543 309 9 1 0 0
0 0 0 68 552 753 45 224 804 645 636 701 1000 1297 1432 1504 2019 2258 2242 2508 2628 2719 2740 2096 1479 1368 775 484 151 1 0 0 0
0 0 0 0 325 535 48 0 0 0 88 710 759 1059 1244 1298 1720 1982 2269 917 1498 2408 1238 1291 1012 706 477 336 141 3 0 0 0
1 0 0 0 0 0 0 0 0 0 0 1350 1238 1157 1769 1983 2003 398 12 1 0 4 1 343 131 131 1 1 40 0 2 1 0
0 135 96 1 0 0 0 0 0 0 0 873 2307 2348 889 429 344 291 441 416 238 27 0 1 5 21 0 0 1 2 2 2 2

GFSFLT1_con_sbcape_024.txt.gz
CAPE
20 63 166 204 151 47 73 97 114 274 383 405 388 315 276 285 283 248 179 137 322 554 738 922 956 731 684 357 50 11 0 0 0
0 0 0 50 118 71 25 80 114 250 410 422 449 434 361 330 325 346 278 198 220 454 622 910 925 888 821 432 54 27 0 0 0
0 0 0 0 0 9 14 33 122 251 388 380 486 563 550 529 495 483 418 249 159 239 376 815 936 980 914 433 76 14 0 0 0
0 0 0 0 0 2 0 4 35 200 355 392 436 745 753 759 712 637 508 359 346 298 449 630 856 1024 903 547 139 52 5 5 0
0 0 0 0 0 0 3 0 10 62 332 373 402 851 969 963 895 792 666 572 571 545 534 598 773 886 906 670 210 110 77 40 31
0 0 0 0 0 0 0 0 0 27 211 456 432 504 1019 1036 986 901 844 732 767 597 743 751 801 833 867 658 369 126 135 124 81
0 0 0 0 0 0 0 0 4 17 159 384 560 541 794 1014 1059 1016 1026 962 940 776 824 840 926 920 915 708 514 280 152 148 148
0 0 0 0 0 0 0 0 4 47 214 395 658 722 761 994 1055 1089 1138 1216 1174 1107 1023 1019 906 932 936 826 634 469 328 200 162
0 0 0 0 0 0 0 0 76 165 348 611 778 922 940 1066 1204 1183 1151 1135 1281 1309 1306 1275 1039 931 978 906 848 599 225 275 264
0 0 0 0 0 0 0 1 127 253 441 735 933 1089 1177 1296 1399 1442 1418 1366 1244 1225 1224 1345 1155 1101 1005 1004 1055 509 196 155 457
0 0 0 0 0 0 0 0 0 162 397 843 1140 1217 1270 1475 1603 1666 1663 1675 1573 1458 1363 1296 1329 1200 1048 1058 984 503 114 100 580
0 0 0 0 0 0 0 0 0 179 448 856 1194 1436 1420 1548 1739 1808 1838 1881 1877 1839 1723 1546 1516 1412 1214 1169 1205 345 30 49 544
0 0 0 0 0 0 0 0 3 293 531 862 1087 1584 1702 1759 1847 1829 1926 2035 2090 2060 2004 1841 1730 1604 1368 1230 1436 65 22 57 662
13 28 0 0 0 0 0 0 38 344 478 783 1118 1409 1793 1968 2067 2052 1964 2090 2276 2324 2350 2164 1870 1825 1605 1611 1380 803 4 0 767
970 1384 1574 830 0 0 0 0 73 400 595 814 1030 1435 1775 1982 2202 2320 2323 2207 2286 2285 2439 2415 2140 1935 1868 1906 1630 1226 1 1 664
1 68 463 1120 493 14 1 45 29 41 198 477 801 1202 1773 2148 2258 2445 2433 2469 2405 2407 2425 2434 2297 2083 2081 1811 1130 0 1 1 233
0 0 0 53 28 0 0 0 0 0 153 1072 529 950 1290 1839 2339 2479 2609 2469 2483 2479 2477 2261 2265 2212 2129 1558 245 36 1 0 0
1 0 0 0 0 0 0 0 0 0 0 739 1606 408 981 1448 2022 2052 2552 1078 1232 2354 2457 2535 2547 1927 1411 559 276 75 1 2 1
1 0 0 0 0 0 0 0 0 0 0 201 1941 1780 733 1181 1762 2071 169 0 0 2 2 2 8 36 3 0 0 0 2 1 1
1 0 0 1 0 3 0 0 15 3 0 0 1016 2018 1333 1245 1442 326 24 386 333 2 0 1 0 1 0 0 0 7 5 2 2

GFSFLT1_con_sbcape_027.txt.gz
CAPE
519 659 778 954 1269 1381 1372 1245 1242 1157 1383 1628 1785 1766 1920 2054 2170 1763 1861 1921 1440 1398 1357 1481 2016 2238 2257 2198 2063 1778 1395 1197 829
235 603 721 754 1100 1336 1313 1393 1234 1334 1452 1656 1707 1666 1762 1827 1956 1950 1825 2033 2140 1468 2137 1486 1925 2290 2386 2372 2083 1796 1374 938 725
0 33 411 667 989 1110 1162 1051 1311 1254 1439 1659 1761 1754 1716 1622 1736 1863 1908 2007 2010 2020 2149 2156 1951 2323 2423 2396 2146 1848 1574 1237 783
0 0 55 190 736 1142 1200 842 1068 1191 1422 1687 1821 1827 1812 1766 1727 1754 1900 1921 2001 2089 2255 2320 2319 2321 2303 2305 2183 1860 1684 1540 1022
0 22 98 101 170 431 660 1135 986 1194 1325 1550 1746 1832 1931 1888 1912 1872 1832 1903 1973 2081 2215 2194 2522 2465 2357 2231 2190 2003 1736 1659 1199
0 0 27 132 92 376 672 948 1087 1018 1125 1161 1282 1793 1866 2006 2031 1928 1910 1941 2036 2141 2196 2253 2047 2418 2577 2267 2091 2076 1825 1814 1641
0 0 60 185 132 653 652 806 1030 1103 1158 1108 1268 1489 1806 2050 2105 2066 2012 2052 2140 2157 2279 2267 2364 2514 2665 2430 2082 2043 1831 1792 1822
0 0 0 1 134 726 991 1021 1132 1063 1137 1405 1441 1713 1769 2090 2239 2292 2302 2222 2225 2262 2374 2269 2396 2489 2587 2460 2049 1777 1922 1827 1838
0 0 0 0 353 424 633 1040 1128 1108 1207 1331 1613 1786 1720 1991 2390 2452 2398 2374 2354 2386 2385 2354 2488 2532 2589 2592 2054 1416 1000 1566 1905
0 0 0 0 196 461 658 652 1105 1047 1203 1204 1619 1861 1931 2051 2299 2461 2474 2435 2483 2427 2474 2417 2484 2466 2545 2610 2617 820 277 383 2062
0 0 0 0 0 15 861 381 319 984 1226 1558 1723 1931 2138 2110 2112 2367 2458 2548 2539 2594 2571 2560 2567 2531 2539 2594 2555 440 72 124 1862
0 0 0 0 0 0 606 738 883 1181 1389 1701 1909 2010 2208 2260 2182 2413 2536 2513 2543 2551 2623 2711 2733 2683 2713 2641 2711 261 17 52 1571
0 0 0 0 0 0 1 496 389 991 1216 1632 2025 2154 2263 2308 2554 2591 2656 2715 2746 2690 2633 2676 2645 2802 2802 2271 2777 222 4 63 1926
0 1 0 0 0 0 29 46 315 1289 1452 1793 2012 1858 2055 2617 2852 2908 2785 2529 2857 3106 2989 2901 2893 2855 2831 2783 2311 2138 1 0 2086
2092 2130 1398 0 0 38 555 680 750 1564 2182 1998 2107 2249 2682 3203 3207 2873 2661 3042 2753 3285 2884 3136 3300 3133 2612 2594 2888 1676 1 0 374
1881 2142 1809 1205 967 1232 1185 1337 1528 1788 1786 1796 2120 2588 3149 3340 3403 3381 3384 3446 3417 2740 2419 2513 2796 2388 2438 2454 2071 2155 196 1 0
654 1218 1309 761 609 785 868 1394 1797 2035 2386 2404 2247 2781 3019 3282 3555 3636 3720 3382 3267 3028 2507 2344 2094 2276 2092 2111 2143 1342 2 0 0
0 22 60 246 376 425 360 464 388 229 355 2150 3073 2368 2333 2714 2910 2988 3598 3652 3461 3060 2779 2748 2752 2975 2303 2378 772 0 0 1 1
91 80 264 242 223 255 226 295 329 267 266 197 1056 1793 2111 2014 2155 2563 3125 3325 1368 0 176 1445 1047 2300 2387 897 1 1 1 0 1
0 58 65 181 552 740 849 753 688 675 629 407 488 724 1230 1692 1320 1966 3041 761 1494 696 0 1 41 14 1 0 0 1 0 0 0

GFSFLT1_con_sbcape_030.txt.gz
CAPE
171 724 1061 1169 1379 1540 1583 1398 1737 1678 2429 2929 2697 2554 3586 3695 3809 2356 2419 2813 1913 1764 1455 1621 1759 2305 2509 2660 2674 2881 2769 2649 2256
0 349 1048 1242 1312 1481 1693 1870 2404 2520 2899 3420 2990 2477 3596 3910 3667 3487 2300 3333 3196 2102 2851 1737 1832 1992 2521 2496 2683 2794 2892 2525 2378
0 207 955 1171 1318 1392 1595 1765 1888 2321 2876 3152 3256 2791 3018 2962 3316 3751 3570 3724 3772 3336 2836 2787 2282 2181 2333 2466 2710 3006 3067 2545 2394
0 94 718 903 1044 1208 1416 1649 1873 1995 2274 2835 2903 3003 3244 3171 2857 3023 3321 3482 3680 3756 3082 3571 3013 3072 2550 2399 2801 3062 3194 3077 2413
0 22 76 187 545 875 1152 1478 1677 1941 1960 2028 2464 2874 3360 3408 3443 3308 3041 3425 3498 3710 3723 3456 3790 3340 3251 2792 2659 2986 3010 3008 2399
0 0 14 108 142 342 884 1244 1556 1519 1839 1785 1885 2743 2496 2723 3006 2878 3407 3640 3522 3691 3779 3844 2722 3498 3946 3357 3026 3288 3016 2919 2978
0 0 0 0 37 190 517 1166 2163 2340 1487 1622 1655 1942 2199 2981 3397 3367 3377 3631 3635 3695 3824 3900 3854 3700 4175 3794 3190 2984 2699 2720 2940
0 0 0 0 362 530 1037 1337 2004 2512 1820 2011 1880 2602 2324 3051 3466 3647 3655 3701 3699 3705 3909 3798 3987 3954 4050 4097 3123 2551 3566 3408 3076
0 0 0 0 0 199 714 1254 1624 1883 2635 2182 2057 2834 2840 3120 3641 3886 3808 3817 3804 3933 3892 3910 3974 3903 4053 4080 3067 1949 1501 2615 3219
0 0 0 0 0 17 594 1028 1367 1491 2454 2020 2485 2880 3204 3382 3754 3895 3949 3989 4034 3969 3915 3973 4032 3987 4011 4151 4043 1635 721 1197 2947
0 0 0 0 0 0 82 437 123 1124 1361 2672 2860 3123 3304 3555 3732 3928 4155 4188 4113 4086 4041 3974 4092 4037 4095 4145 4075 2071 270 474 2767
0 0 0 0 0 0 0 0 155 359 1326 1876 2600 3156 3389 3557 3670 3410 3551 4120 4098 4067 3845 3665 3693 3554 4120 4375 4226 1590 64 332 2572
0 0 0 0 0 0 0 127 224 622 1151 1554 2588 3008 3277 3476 3786 3781 3705 4092 4230 4088 3938 3556 3107 3511 3910 3417 4265 2082 1 230 2261
2 0 0 0 0 0 37 419 644 1056 1290 1677 2423 2349 2415 3367 3875 4040 4038 4341 4302 4240 4067 3624 4045 3715 3696 4075 3877 3710 0 0 2631
218 69 669 1172 332 0 16 640 630 1193 2941 2489 2985 3083 3084 3874 3994 3208 3073 4433 4496 4176 4167 4127 3978 3379 3552 3703 4106 2649 143 0 160
20 435 1275 1690 13 243 1386 1904 1567 1639 2737 2643 2702 2999 3669 3715 3817 3855 4197 4487 4536 3738 4238 3371 3369 2907 3468 3176 3682 3712 1355 0 0
1060 1728 2440 2084 1387 1305 1988 2517 2625 2869 2875 2719 2767 2875 3131 3239 3500 3483 3475 3295 3545 3284 3098 3598 3207 3560 3712 3414 3448 3475 3140 630 4
1382 1525 1290 1451 1791 1899 1864 1976 2011 2185 2711 3430 2926 3120 3231 3353 3301 3469 3626 3853 3376 3266 3635 3205 3428 3503 3170 3090 3100 3306 2847 679 145
989 1125 1002 976 963 1041 1162 1093 1147 1228 1225 1326 1848 2398 2539 2400 2498 2802 3219 3300 3737 51 218 27 1002 1795 1548 2199 2225 518 56 2 2
138 791 1040 1307 1367 1424 1437 1358 1203 614 814 1496 1653 1541 1516 1458 1386 1585 1816 2400 2906 3042 1367 0 2 8 733 1828 0 2 2 1 1

GFSFLT1_con_sbcape_033.txt.gz
CAPE
75 239 812 1119 1329 1454 1609 1639 2075 2248 3171 4022 4154 3999 4109 4011 4292 2773 2367 2769 1536 1275 1167 1141 2760 3858 3465 3433 3530 3310 4009 3024 2711
25 199 623 931 1279 1489 1998 1884 2412 2567 3137 3788 4039 3666 4080 4260 4188 4034 3007 3303 3564 2521 2690 1331 2928 3542 3601 3579 3578 3862 4082 2681 3537
0 47 410 867 1173 1416 2002 1792 2254 2678 3004 3598 3841 3477 3820 3960 4210 4301 4018 4118 4237 3249 3415 3617 3627 3149 3271 3471 3765 3927 4317 3227 3633
0 0 173 722 1153 1344 1673 1773 1806 2386 2836 3499 3829 3763 3768 3859 4000 4060 4269 3952 4196 4174 4186 4402 3761 4087 3664 3708 3792 3985 4382 3978 3703
0 0 80 657 1153 1137 1320 1684 1809 2082 2503 2528 3662 3785 3880 3864 4021 4010 4049 4225 4028 4308 4407 4201 4405 4284 4201 3972 3808 3980 4255 3998 2588
0 0 130 686 893 1037 1181 1437 2155 1996 2512 2119 2266 3248 3444 3958 3963 4052 3973 4144 4210 4172 4353 4402 4196 4284 4471 4324 3948 4019 4410 4289 3990
0 0 20 211 330 498 1134 1601 2564 2854 2368 2258 2288 2501 2859 3481 4052 3975 4042 4122 4333 4276 4383 4392 4329 4275 4403 4410 4297 4028 4109 4185 4195
0 0 0 1 89 432 933 2052 2882 3096 2400 2841 2548 3151 3153 3456 3998 4198 4253 4212 4289 4333 4384 4357 4407 4369 4378 4566 4398 3585 4064 3864 3998
0 0 0 0 0 89 552 1404 2615 2828 3201 2798 2824 3479 3342 3729 4127 4351 4424 4436 4380 4538 4434 4476 4467 4464 4380 4376 4091 2786 2136 3148 3961
0 0 0 0 0 0 259 633 1582 2022 3294 3226 2934 3378 3782 3815 4188 4393 4522 4572 4605 4527 4524 4534 4520 4471 4529 4479 4476 2809 1239 1332 3789
0 0 0 0 0 0 34 19 291 1415 1558 3813 3697 3634 3690 3998 4125 4356 4573 4683 4633 4650 4632 4592 4594 4599 4656 4632 4514 3308 758 597 2993
0 0 0 0 0 0 134 0 42 473 1643 2824 3744 3908 3861 3820 4196 4345 4526 4574 4610 4644 4610 4605 4555 4610 4724 4717 4575 2954 1369 194 2671
32 0 0 0 0 0 0 62 0 0 256 1698 3625 3658 4076 4156 4444 4475 4533 4624 4762 4739 4690 4567 4299 4481 4632 4293 4683 3743 995 358 2907
527 648 514 249 157 74 165 113 67 1358 1224 1405 2704 3329 3999 4390 4465 4647 4572 4655 4783 4828 4759 4430 4637 4525 4569 4636 4349 4515 695 8 3310
626 983 787 400 397 1021 1174 431 783 2740 2973 3085 3777 3761 3970 4324 4548 4132 4067 4692 4833 4969 4842 4750 4747 4703 4633 4553 4659 3169 1563 0 570
1090 1141 805 37 310 1619 533 772 1067 2719 3751 4441 4389 4491 4638 4619 4694 4696 4536 4840 4910 4502 4794 4311 4404 4248 4507 4468 4468 4562 1929 6 0
1197 1167 1444 1962 2000 1703 1040 2063 2545 2454 3448 3665 4170 4740 4844 4808 4894 4783 4610 3660 4007 3845 3696 4024 3973 3905 4110 4014 4122 3995 4485 1960 109
1177 1660 2257 2041 2451 2558 2752 3134 3421 3449 3497 3231 3255 3426 3393 3615 3433 3852 4495 4385 3289 3606 3966 3272 3589 3737 3600 3662 3766 3620 3541 3809 3688
1948 1681 1703 1839 1902 2007 1914 1867 1891 1991 2011 3223 3800 3592 3550 3338 3171 3324 3525 3581 4000 1986 2077 1172 1151 0 266 2419 795 839 1308 2181 1753
1141 1846 1508 1670 1947 1925 1908 1809 1161 1172 1770 1988 2147 2434 2467 2138 1709 1897 2033 2872 3033 2906 1539 31 31 0 0 2 45 2 108 11 101

GFSFLT1_con_sbcape_039.txt.gz
CAPE
491 563 408 456 426 356 343 347 740 1231 1255 1279 1570 1762 1188 870 1634 1356 852 1380 491 539 1023 1479 1412 2179 1738 1820 1744 1788 1986 1944 2028
497 563 654 633 452 441 315 402 1003 1112 1591 1384 1550 1813 1752 1191 1104 2149 1035 571 1514 177 693 938 1582 1818 2276 1813 1672 1633 1953 2234 1915
241 479 654 906 612 540 400 386 872 1201 1753 1711 1710 1722 1912 1811 1185 1101 1967 795 738 1723 369 670 1498 1789 2030 1960 1871 1881 1998 2362 2323
15 466 656 1094 919 725 572 462 789 1059 1466 1942 1930 1911 1747 1990 1760 1194 1673 1765 888 1785 1247 1544 1292 1985 1990 1950 2072 2269 2191 2038 2032
0 174 252 1197 1152 998 817 606 745 984 1191 1905 2023 2129 1903 1961 2179 1944 1383 1942 1999 920 2179 1376 2290 2362 2105 2232 2044 1965 2499 2105 2202
0 24 324 1125 1346 1251 1054 814 717 913 1120 1583 2009 2243 2302 2143 2105 2313 1764 1721 1830 2283 1340 2483 1604 2625 2359 2292 2343 2310 2140 2347 2194
0 273 352 1081 1235 1417 1336 1093 925 920 1008 1362 2007 2201 2408 2472 2415 2370 2479 2056 1801 1581 2359 2107 2929 1882 2572 2400 2395 2291 2408 2355 2397
64 227 467 745 1164 1235 1510 1425 1197 1178 1121 1267 1572 2292 2541 2585 2595 2398 2379 2393 2442 2282 1774 2504 2237 2630 2337 2679 2389 2462 2327 2448 2418
0 2 172 212 690 1191 1452 1656 1564 1475 1457 1439 1479 2083 2418 2680 2593 2580 2393 2449 2404 2671 2650 2106 2395 2411 2449 2699 2803 2646 2131 2372 2478
0 0 0 0 0 142 1259 1764 1753 1781 1830 1667 1723 1721 2223 2525 2688 2571 2624 2520 2701 2672 2871 2924 2590 2428 2722 2624 2755 2617 1522 1608 2505
0 4 0 0 0 0 1 707 2040 1887 1897 2067 1931 1926 1960 2211 2588 2785 2698 2789 2677 2911 2930 3055 3158 3066 2815 3012 2923 2672 1321 837 2349
333 411 537 607 463 287 284 42 80 2302 2142 2302 2495 2216 2236 2270 2694 2751 2922 2871 3049 3026 3041 3122 3172 3367 3307 3211 3206 2426 1459 312 2010
351 538 652 768 635 436 432 713 586 1865 2660 2498 2654 2775 2947 2800 2789 2942 2886 3019 3038 3198 3292 3237 3279 3277 3496 3388 3413 3155 1049 317 2308
469 856 979 960 776 745 879 568 497 1025 1151 2721 2660 2461 2666 3266 3374 3301 3259 3153 3267 3384 3513 3548 3525 3557 3553 3695 3557 3464 1831 165 2329
414 234 1025 1412 1210 736 608 405 1106 852 677 1973 2367 2703 2894 2888 3106 3132 3323 3432 3589 3731 3770 3800 3744 3773 3780 3722 3678 3398 2825 361 209
71 49 73 1546 2280 2505 2624 1060 1306 1282 2943 3063 3693 2914 3026 3132 3347 3342 2702 3629 3607 4038 3984 4053 3999 3937 3934 3888 3769 3669 3525 2063 90
55 28 158 1217 1972 2683 3432 3227 3098 3090 3460 3146 2450 3343 4218 3570 3730 4078 3318 3831 3813 3944 4125 4050 3983 3950 3924 3765 3591 3603 3589 2581 89
82 81 155 663 1228 2025 2575 2577 2431 2325 2289 2737 3756 2723 4587 4195 4165 4109 3984 3445 3964 3795 3729 3851 3950 3934 3786 3717 3720 2486 349 405 1616
76 52 41 424 875 1547 1924 2185 1682 1275 1287 1872 2793 3808 4379 4452 3988 3947 4103 4158 2572 0 80 0 1 7 2255 0 0 1 2 2 0
0 81 175 372 651 1034 1495 1408 1277 1179 1438 2077 1860 2002 3293 3151 3330 3498 3840 3876 3844 592 0 1 0 0 0 0 0 0 0 2 2

GFSFLT1_con_sbcape_042.txt.gz
CAPE
113 69 306 333 323 180 128 521 498 370 399 574 912 734 621 628 551 651 443 179 1 7 481 588 744 1391 1368 1331 1185 1204 992 971 1358
64 299 410 296 374 253 218 423 622 575 416 391 876 933 858 878 835 712 739 351 200 0 315 1024 830 1340 1382 1316 1250 1292 1336 1172 1172
25 555 480 348 337 328 304 379 579 710 604 464 593 1057 853 672 769 1435 968 543 488 777 24 823 1081 1113 1739 1394 1288 1099 1215 1765 1369
252 525 529 424 334 419 354 335 589 834 809 702 779 951 1203 1038 687 604 1441 936 229 365 735 86 755 1171 1445 1728 1483 1226 1109 1348 1875
270 660 625 520 411 492 414 364 638 722 1108 969 996 1113 1293 1386 1249 828 628 1462 828 397 536 773 101 1267 1341 1671 1679 1463 1406 1325 1745
0 401 688 607 537 495 485 369 518 940 1081 1312 1240 1291 1320 1447 1538 1382 990 764 1581 1113 629 856 1032 1420 1449 1639 1640 1709 1729 1572 1575
0 150 647 815 712 599 559 397 466 804 1048 1588 1589 1601 1598 1458 1648 1776 1598 1138 949 1760 1369 636 1198 1692 1803 1803 1785 1682 1739 1984 1913
0 112 588 997 879 776 700 522 436 720 916 1305 1731 1804 1824 1771 1601 1821 2015 1758 1361 1269 1619 1816 1015 1593 1837 2000 1952 2014 1905 1739 1829
0 0 597 1127 1024 956 871 696 557 711 830 1144 1569 1827 1943 1952 2017 1886 1949 2146 1965 1552 1431 1337 1974 1762 1984 1969 2266 2211 1836 2011 2049
0 0 513 1135 1141 1083 1096 942 773 722 834 959 1526 1764 1854 2107 2117 2280 2193 2172 2219 2226 1964 1668 1287 1741 2091 2079 2247 2243 1308 1149 2055
65 18 0 0 156 673 1150 1227 1066 938 910 984 1108 1521 1992 2081 2392 2358 2397 2237 2198 2191 2310 2381 2144 1690 1809 2182 2143 2125 953 562 1853
133 88 59 52 73 15 45 1315 1488 1385 1299 1299 1269 1337 1448 2209 2347 2597 2463 2437 2292 2332 2376 2393 2570 2570 2363 2014 2140 1967 906 195 1514
87 726 366 112 60 48 67 248 116 1628 1698 1741 1621 1575 1654 1661 2324 2515 2624 2528 2546 2505 2522 2659 2625 2666 2805 2771 2661 2337 857 105 1953
0 34 983 1233 1103 576 99 126 211 1463 1695 1935 2029 1967 1765 1808 1811 2387 2553 2671 2653 2680 2762 2666 2709 2798 2806 2899 2836 2943 1034 41 2115
0 0 589 1172 2479 2536 1805 369 313 95 882 1393 1929 1855 2215 2208 2293 2242 2507 2538 2658 2722 2709 2910 2949 2871 2954 3001 2961 2872 1529 132 268
0 0 9 530 1288 2235 2371 2228 2145 2407 2453 2068 2174 2228 2275 2416 2498 2622 2656 2665 2652 2801 2893 2975 3122 3193 3226 3291 3296 3149 2599 658 0
0 0 0 120 830 1102 1691 1909 1826 1725 1636 1854 2655 1513 2877 2229 2415 2509 2378 2962 3023 3120 3279 3345 3350 3444 3498 3515 3441 3272 3114 752 12
0 0 0 46 239 553 883 1643 1189 932 851 1032 1567 2208 2446 3127 2836 2472 2540 1445 1617 3189 3531 3650 3728 3690 3759 3751 3664 2944 1750 2040 1872
0 0 0 4 58 111 438 1141 934 803 744 1149 1616 1722 2208 3272 3294 2993 2896 442 1 1 0 28 1175 1967 2654 0 244 2 1 0 0
0 0 0 21 108 190 626 931 1016 1080 1218 1418 1256 976 703 1518 3195 3276 3392 2803 438 1 0 0 0 0 0 0 0 0 0 0 0

GFSFLT1_con_sbcape_045.txt.gz
CAPE
129 233 426 475 311 292 293 296 164 55 67 72 29 58 95 65 16 0 10 30 1 0 5 170 404 742 798 702 789 784 450 480 663
114 57 75 182 433 249 210 335 264 162 70 168 128 130 167 171 102 103 69 23 0 0 0 109 162 432 1048 1005 902 907 725 544 750
125 88 59 84 314 255 145 341 337 274 153 223 281 233 247 311 272 264 237 104 0 0 0 246 402 480 663 900 1080 919 919 773 701
63 176 92 56 164 286 197 345 460 302 255 209 301 433 380 404 425 411 404 378 156 204 0 101 609 577 856 970 983 878 867 1120 1172
0 142 174 110 161 254 266 193 422 456 303 236 221 484 519 520 572 680 826 627 243 144 455 0 233 690 798 1140 1174 992 938 915 1265
0 6 100 179 268 216 316 264 211 463 483 361 244 340 618 613 544 455 674 1253 1052 286 147 276 127 376 825 986 1249 1254 1033 1028 995
0 0 19 251 358 285 347 307 200 381 586 535 450 474 555 816 886 812 556 494 960 1202 599 371 419 465 723 985 1160 1328 1340 1291 1213
0 0 75 263 374 303 348 298 221 450 555 802 695 729 792 903 1126 1143 1063 788 586 915 1288 985 698 741 1051 1124 1168 1315 1375 1482 1462
0 49 243 382 454 386 378 347 283 404 694 989 1038 981 1012 1048 1096 1315 1361 1277 1088 732 1058 1444 1043 823 929 1328 1508 1626 1307 1430 1527
0 0 214 435 425 422 415 403 336 457 793 1021 1363 1353 1343 1361 1322 1347 1541 1636 1564 1256 1027 1091 1511 1480 1115 1201 1363 1549 1075 863 1629
151 0 111 403 561 554 494 492 415 447 718 909 1419 1592 1653 1671 1712 1617 1547 1717 1903 1817 1519 1344 1237 1235 1565 1628 1642 1580 507 486 1434
170 649 0 9 377 502 568 610 529 532 736 924 1156 1461 1701 1828 1889 1934 1978 1878 1891 2000 2063 1951 1713 1550 1237 1227 1638 1373 867 86 1204
13 772 1106 89 0 242 797 776 687 683 774 850 1004 1371 1653 1758 1933 2085 2110 2222 2141 2089 2123 2174 2254 2272 2138 1670 1476 1526 422 27 1571
0 29 808 1923 1297 183 30 151 987 1016 1010 1020 1082 1068 1104 1573 1969 2167 2277 2216 2231 2197 2174 2235 2240 2262 2321 2369 2083 2091 583 3 1564
0 0 127 800 1814 1706 1142 75 649 903 1270 1315 1432 1390 1207 1281 1524 2089 2238 2381 2316 2316 2343 2321 2349 2389 2421 2448 2512 2222 1144 30 82
0 0 0 140 540 1361 1498 1471 1552 1671 1770 2170 1621 1666 1645 1465 1543 1582 2044 2323 2440 2418 2384 2505 2535 2541 2528 2530 2548 2504 2083 448 0
0 0 0 0 63 405 1072 906 779 693 774 1248 1892 1997 1830 1852 2125 2058 1969 2219 2278 2404 2534 2548 2589 2673 2819 2783 2708 2874 2360 355 43
0 0 0 0 0 6 328 651 453 514 947 1120 1370 1672 1758 2110 2079 1637 2030 980 1292 2216 2548 2443 2757 2838 2937 2991 3016 3040 3128 3109 1918
0 0 0 0 0 7 137 429 459 629 1104 1206 1022 1135 1046 946 2223 2281 1589 14 1 0 1 2 146 1131 3214 11 421 841 357 160 204
0 0 0 0 0 0 140 380 567 448 1055 899 658 563 824 563 753 2523 1899 365 59 0 0 0 0 0 14 12 0 1 2 2 2

GFSFLT1_con_sbcape_048.txt.gz
CAPE
277 266 230 184 155 137 111 95 51 12 0 0 0 0 0 0 0 0 0 0 0 0 0 130 424 570 796 763 794 784 729 616 666
183 155 143 344 311 205 155 132 84 47 23 0 0 0 0 0 0 0 0 0 0 0 0 42 255 513 844 827 854 918 810 688 795
96 161 60 135 347 276 229 178 151 62 35 4 4 0 0 0 0 0 0 0 0 0 0 41 165 304 732 951 991 969 941 902 728
123 158 111 150 295 370 245 230 220 98 45 30 34 42 55 72 66 41 44 17 8 0 0 0 180 315 486 671 944 1089 1104 1193 1122
127 192 165 91 92 156 267 187 236 245 89 47 78 108 131 149 161 166 152 150 74 40 0 0 211 435 539 781 883 1011 1112 1255 1489
0 54 104 123 100 70 236 133 173 271 219 143 133 222 222 208 253 300 301 300 273 196 233 12 61 398 614 758 1071 1170 1106 1228 1329
0 0 20 78 89 55 133 211 205 362 318 267 210 271 419 377 383 414 479 519 523 260 251 394 238 245 548 762 960 1258 1343 1307 1315
0 0 0 7 67 90 120 275 193 426 422 348 282 285 506 556 515 491 518 687 973 957 370 301 453 443 486 760 979 1144 1435 1526 1492
0 0 0 0 22 118 175 285 296 380 535 513 395 338 428 621 670 636 565 459 470 923 1137 878 724 624 702 713 837 832 870 1277 1633
1 74 0 0 0 107 212 295 321 328 536 645 595 509 504 605 797 932 918 850 679 568 710 1144 1144 993 923 1030 1194 907 423 451 1518
0 250 70 0 52 196 234 312 308 303 513 807 783 704 779 864 949 1097 1169 1212 1185 1062 831 812 1227 1332 1122 975 1036 885 190 158 1210
0 95 651 0 72 142 225 319 300 357 658 832 1061 1050 1092 1158 1208 1205 1307 1461 1521 1490 1376 1196 1075 1213 1500 1542 1361 702 172 0 1188
0 37 763 291 186 162 186 240 251 446 719 954 1334 1390 1449 1530 1555 1522 1471 1489 1630 1781 1839 1735 1615 1578 1481 1300 1591 1388 147 4 1312
0 2 355 1055 188 270 330 310 316 536 690 930 1128 1380 1598 1707 1785 1809 1814 1788 1788 1859 1983 2098 2157 2135 2046 1948 1433 1512 448 0 1421
0 0 30 315 1292 1245 420 294 502 600 702 742 814 1088 1412 1684 1793 1976 2028 2093 2225 2227 2163 2204 2257 2281 2351 2422 2445 1581 1017 11 40
0 0 0 19 380 776 781 1164 1601 1761 1744 1465 1152 945 1122 1344 1779 1969 2224 2292 2265 2338 2351 2365 2385 2428 2473 2520 2512 2537 1178 254 0
0 0 0 0 9 182 403 329 522 704 1050 1727 1619 1608 1405 1237 1285 1613 2117 2342 2419 2435 2498 2545 2573 2551 2567 2563 2609 2706 2494 929 147
0 0 0 0 0 34 188 279 468 857 1122 1207 1383 1505 1823 1939 1910 1483 1759 1343 1377 2435 2575 2187 2610 2668 2729 2867 2876 2773 2776 2465 2191
0 0 0 0 0 0 126 239 342 536 791 857 913 1054 1066 888 2060 1589 1962 62 0 0 1 2 2 336 2629 451 859 2298 2539 2199 1614
0 0 0 0 0 0 0 111 130 32 21 182 297 302 429 615 423 2271 1264 518 373 22 0 0 2 3 34 823 658 4 3 2 2

GFSFLT1_con_sbcape_051.txt.gz
CAPE
570 614 571 510 422 493 752 680 773 566 621 762 814 928 1226 1395 1541 777 750 1190 667 650 588 860 1497 1915 1973 2096 2188 2154 2288 2166 2146
509 657 650 580 511 627 765 809 855 795 888 842 829 527 1108 1297 1382 1357 953 1403 1268 723 1169 522 1140 1654 1832 1971 2100 2222 2355 2164 2392
315 647 745 699 613 649 837 674 860 832 905 895 873 841 980 983 1201 1331 1347 1374 1397 1386 915 812 728 1534 1738 1935 2022 2243 2448 2074 2382
85 489 750 809 864 849 805 661 812 886 869 995 974 883 932 1083 955 838 818 962 1147 1481 1093 1110 1319 1616 1732 1880 1999 2127 2374 2297 2240
29 209 620 731 802 886 844 1028 939 809 897 698 934 976 1033 1031 1227 1144 922 1278 1048 1384 1617 1178 1343 1585 1801 1824 1815 1941 2171 2100 1746
0 158 318 522 422 812 1002 1040 1216 999 878 692 667 996 736 981 1161 1067 1327 1413 1281 1465 1369 1387 1139 1281 1846 1880 1825 1884 1982 2051 2156
0 0 157 405 398 1006 1320 1350 1399 1333 1133 898 808 801 871 1216 1301 1337 1313 1579 1687 1313 1766 1685 1415 1502 1846 1845 1873 1920 2017 2095 2239
5 1 0 166 517 936 1083 1471 1472 1483 1462 1346 1070 1240 1224 1322 1465 1533 1624 1760 1860 1745 1853 1860 1913 1686 1698 1662 1594 1449 1881 2081 2251
148 202 233 79 5 670 899 1136 1421 1374 1516 1476 1412 1440 1451 1579 1708 1748 1815 1917 2037 2122 1916 1880 2212 2004 1807 1683 1381 787 861 1642 2185
0 63 136 483 313 3 908 823 1364 1328 1523 1584 1593 1607 1712 1926 1965 1944 1981 2063 2225 2349 2318 1986 2177 1857 1859 2136 2258 984 401 504 1910
0 1 22 292 693 48 242 540 733 1249 1394 1726 1708 1748 1828 2053 2135 2092 2142 2158 2215 2351 2201 2504 2314 2099 2301 2352 2322 1333 221 1 1386
0 0 3 530 967 215 418 1039 1321 1483 1695 1793 1788 1837 1917 2009 2154 2224 2304 2311 2302 2160 1958 1984 2247 2243 2354 2493 2550 1062 390 5 1705
0 1 146 954 624 253 803 1388 1362 1505 1460 1855 1934 1967 2040 2061 2124 2293 2457 2539 2643 2674 2358 2247 1798 1894 2485 2144 2732 1733 54 2 1582
0 113 257 1305 839 1146 1556 1574 1313 1773 1813 2119 1873 1802 1782 2126 2425 2515 2649 2875 3017 2688 2599 2724 2538 2430 2746 2526 2311 2703 403 0 1655
0 7 331 875 1305 920 1142 1472 1737 2030 2160 2377 2584 2672 2625 2825 2869 2278 2219 3045 2884 2766 3030 2989 3026 2914 2802 2680 2689 1708 1178 0 52
0 0 173 743 1247 1429 1694 1360 1469 1692 1918 2180 2566 2985 3177 3008 2944 2842 3300 3003 3052 2689 3046 2767 2879 2899 2931 2949 3013 3158 968 57 0
0 0 40 737 1236 1389 1571 1958 2198 2478 2530 2124 2157 2521 2855 2945 2868 2970 3134 2812 2861 2879 2933 2945 2940 3064 3096 3119 3217 3288 3366 2039 595
0 0 0 210 647 985 1132 1390 1530 1500 1944 2750 2460 2246 2161 2354 2406 2478 2872 3045 2564 2941 3404 2738 3146 3216 3287 3346 3425 3419 3154 3306 3333
0 0 0 0 0 190 797 878 639 657 784 990 1729 2285 2575 2463 2253 1674 2201 2884 941 0 0 2 3 434 2354 3356 1846 2336 2696 2523 2702
0 0 0 0 0 0 0 280 101 1 19 675 912 841 1236 1205 2515 3559 2880 2923 2178 1923 0 1 2 2 10 1162 2436 1054 842 139 40

GFSFLT1_con_sbcape_054.txt.gz
CAPE
753 890 1011 916 749 558 687 672 604 625 1390 1898 1823 1483 1984 2288 2142 899 1091 1411 1015 879 701 730 1065 2180 2259 2417 2288 2268 2440 2225 1985
482 716 990 1087 1003 873 743 862 1382 1354 1877 1724 1807 1344 2274 2467 2399 2155 1349 2331 1429 1052 1678 671 887 1388 2090 2052 2212 2399 2406 2047 2478
111 483 822 930 1158 1073 977 827 907 1002 1103 1717 1777 1378 1584 1587 1631 1946 2137 1705 2217 1819 1186 1396 975 1274 1554 1533 1876 2297 2596 2059 2320
27 293 782 874 1084 1166 1118 974 901 1047 1066 1286 1379 1713 1855 1815 1557 1543 1598 1609 1686 1860 1745 1598 1840 1443 1324 1332 2032 2236 2527 2323 1999
10 71 447 837 953 1023 1172 1198 1051 1037 1057 1110 1217 1806 2303 2039 1999 2136 1537 1806 1743 1891 2036 1852 2000 1879 1676 1481 1745 2244 2561 2438 1748
13 59 131 543 792 1012 1113 1283 1286 1111 1092 971 1087 1657 1318 1465 1640 1693 2083 2065 1798 2264 2068 2110 1890 1964 2008 1816 1702 2145 2488 2555 2281
0 0 93 295 557 749 1239 1504 2101 2000 1289 1086 961 1190 1204 1793 1733 1943 1642 2490 2600 1989 2491 2303 2203 2187 2128 2028 1744 1668 2087 2251 2403
0 0 0 33 247 713 1587 1819 2328 2183 1470 1650 1424 2007 1303 1918 2499 2357 2522 2832 2882 2522 2678 2403 2339 2330 2297 2155 1883 1349 1933 1982 2053
56 35 126 72 38 512 945 1337 2046 2346 2486 2094 1913 2480 2211 2497 3033 2958 3031 3195 3335 3357 2964 2859 2836 2331 2397 2309 1819 917 735 1230 1805
146 136 242 343 526 361 221 1049 1546 1992 2805 2228 2427 2809 2718 2937 3208 3248 3326 3356 3522 3447 3442 3020 3289 2516 2573 2997 2769 1191 400 380 1493
110 67 72 346 609 768 1072 249 743 1511 1902 2900 2961 3160 3001 3131 3359 3374 3521 3561 3626 3740 3143 3331 3155 2852 3299 3341 3097 1609 571 28 1631
59 53 103 263 525 917 1251 1373 461 1208 1656 2416 2828 3176 3210 3310 3397 3423 3277 3350 3426 3186 3262 3093 3081 2910 3235 3278 3548 1353 750 98 1755
61 118 344 548 1007 1426 1491 1592 379 772 1518 1976 2939 3039 3133 3308 3343 3499 3483 3479 3748 3763 3138 3210 2819 2876 3260 2690 3369 2436 267 200 1858
0 10 467 1167 1832 1733 1365 1150 419 1883 2113 2437 2639 2292 2351 2985 3432 3705 3670 3983 3942 3829 3220 3314 3397 3102 3539 3832 3151 3320 523 0 2278
0 0 848 1662 1681 1485 970 1069 1292 2620 2924 2327 2708 2867 2823 3442 3586 2796 2714 4029 3548 3412 3586 3676 3872 3580 3206 2864 3067 2282 844 0 185
0 1 87 1399 1765 1715 1476 1453 1650 2000 3232 2931 3068 3171 3473 2887 2912 2864 3698 3727 3437 3262 3497 3266 3189 3171 3116 2977 2999 3352 1734 4 0
0 0 0 25 1306 1632 2157 2468 2098 2214 2508 2594 2775 2905 3008 3071 3149 3081 2913 3033 3190 3109 3102 3157 3055 3163 3149 3172 3243 3418 3699 2368 330
0 0 0 0 0 635 767 1058 1392 1565 2421 2616 2750 2934 3012 3213 3234 3162 3345 3454 2622 3242 3627 1721 3294 3203 3361 3467 3552 3577 3463 3679 4021
1 6 0 0 0 0 51 83 380 804 1609 1984 2945 2673 2684 2762 2834 3128 3204 3381 2501 0 1 3 71 53 1253 3614 2241 2644 2774 3028 2818
10 5 5 16 10 0 9 14 14 102 568 1497 1919 2345 3043 3058 2539 2824 3095 2837 2927 1970 81 2 3 3 24 32 209 1154 2005 1513 68

GFSFLT1_con_sbcape_057.txt.gz
CAPE
735 857 729 550 467 423 859 954 1247 1290 2312 3048 3094 2627 2508 2022 2646 954 852 1645 932 655 461 601 3613 2623 2217 2365 2424 2352 2895 2150 1989
421 844 835 889 682 517 859 1123 1589 1544 2124 2782 2935 2116 2739 2711 2405 1889 694 1604 2556 1360 1697 817 1105 2124 2258 2118 2057 2666 2926 1816 3020
309 474 759 883 1063 856 692 747 953 1520 1967 2600 2514 2409 2807 2659 2529 2625 2182 2366 3325 2303 2464 2622 1450 1960 1651 2122 2630 2736 3675 2594 2768
42 313 576 789 1155 1171 1016 904 870 1041 1416 2159 2269 2428 2604 2323 2367 2248 2316 2995 3125 3334 2862 3267 3041 2668 2304 2271 2357 2785 3881 3639 2641
2 16 370 728 809 1093 1208 1194 1093 1149 1152 1160 1850 2270 2768 2484 2676 2249 2098 2314 2909 3319 3400 3029 3488 3141 2931 2432 2099 2970 3568 2624 2300
0 17 171 512 654 831 1274 1333 1587 1166 1201 1159 1227 2085 2004 2481 2485 2495 2250 2850 2700 3127 3476 3721 2432 3266 3532 3039 2417 3145 3457 3639 3268
4 97 204 247 579 835 1162 1753 2336 2234 1402 1242 1121 1301 1554 2219 2591 2622 2515 2976 3141 3237 3531 3722 3615 3693 3655 3370 2961 2772 2733 3208 3399
0 18 75 229 286 1409 2517 2394 2865 2606 1828 2042 1629 1932 1835 2149 2670 2840 3074 2873 3348 3317 3566 3654 3841 3954 3817 3673 2856 2078 2842 3170 3324
22 0 0 0 187 499 896 1539 2831 2983 2661 2455 2083 2424 2123 2277 2927 3115 3084 3043 3317 3600 3703 3842 3976 3885 3911 3801 2191 1417 1105 1968 2736
135 144 104 144 190 122 382 933 1810 2494 3013 2566 2773 2865 2842 2791 3099 3214 3232 3276 3531 3730 3837 3964 4176 4061 3980 4029 3906 1525 573 431 2212
327 318 316 388 476 507 541 503 900 1398 2121 3235 3147 3121 3526 3074 3532 3438 3563 3711 3764 3952 3985 4002 4124 4168 4208 4201 3964 2347 539 11 2153
562 602 657 638 599 584 793 974 779 870 1833 3317 3256 3697 3393 3606 3494 3839 3903 3903 3970 4098 4127 4138 4095 4170 4312 4379 4263 1954 950 18 2021
195 338 660 931 1036 1060 1186 1366 1367 1309 946 2392 3500 3627 3525 3828 3732 4025 4052 4123 4240 4279 4208 4179 3612 3926 4310 3995 4506 3188 369 214 2253
0 34 470 747 1614 1727 1897 2086 1774 2103 1525 2155 3165 3509 3738 4120 4036 4173 4293 4450 4439 4451 4387 3724 4296 4167 4267 4393 4051 4298 1171 0 2811
0 0 0 50 1763 2356 2247 2208 2309 3111 2770 2327 3459 3695 3892 4138 4295 3696 3648 4488 4483 4478 4474 4495 4703 4540 4367 3599 4540 3220 731 0 280
0 0 0 0 696 2975 2903 2223 1840 2996 2749 3727 3917 4059 4115 4171 4252 4226 4238 4424 4590 4076 4442 3503 3546 3409 3165 2928 2841 3550 1945 0 0
5 1 2 3 31 579 1786 2017 2537 2980 3024 3833 4185 4219 4253 4288 4192 4197 4189 3790 3755 3442 3258 3264 3111 3051 2922 2733 2548 2234 2708 1567 112
27 23 9 13 5 7 8 33 284 753 1994 3693 3207 3992 3807 3934 3504 3436 3948 3774 3369 3344 3638 2491 3200 2716 2450 2204 2742 2739 2858 3149 3428
73 26 32 15 7 3 3 1 0 0 88 2090 3306 3222 3394 3136 3077 3471 3469 3429 2267 0 297 316 480 125 1215 2857 1001 1353 664 2494 2733
61 55 20 48 29 13 16 10 5 0 0 75 2755 3351 3409 3407 2825 3433 3890 3759 3110 2707 109 1 2 2 442 5 596 1074 5 3 203

GFSFLT1_con_sbcape_060.txt.gz
CAPE
351 655 533 650 668 684 563 524 577 854 1405 1484 1604 2116 1153 1342 2278 1354 1443 2613 1520 2539 1552 1653 2639 3180 2848 3231 3261 3084 2920 3150 3083
64 3 12 737 793 676 861 774 674 1023 1457 1683 1894 1611 1897 1042 1767 1812 1033 2262 2547 2026 2391 2276 2731 2970 3421 3150 3328 3116 3164 2597 2764
19 4 1 86 921 777 927 876 1010 945 1602 1835 2086 1907 2009 1681 828 1663 1646 1114 2621 1882 2604 2317 2983 3218 3005 3182 3518 3661 3541 2905 3118
6 6 48 138 325 922 840 964 1155 1075 1141 2127 2345 2311 1979 1904 1572 1194 1126 1603 940 2342 2002 3990 3306 3733 3274 3062 3062 3650 3645 3077 3174
352 371 422 170 8 1 929 928 1060 1378 1246 1545 2167 2327 2144 2053 1996 1443 1339 797 1924 2188 2620 2608 3728 3292 3877 2998 3074 3135 3235 3240 2037
447 129 122 46 80 271 1031 940 1071 1227 1359 1300 1941 2312 2133 2191 2127 2049 1669 1244 1024 2160 2296 3151 2567 3370 3047 3292 2801 2820 2963 3249 2963
39 379 417 364 454 804 1292 1229 1298 1319 1267 1305 1434 1975 2067 2061 2068 2018 1855 2006 1147 2235 2461 2269 2679 2769 3190 3068 2793 2480 2555 3251 3180
49 36 280 167 672 924 1490 1742 1770 1707 1612 1395 1413 1591 1783 2111 2264 2075 2108 1857 1966 1281 2039 2489 2755 2854 3078 3133 2974 2460 2315 2561 3062
466 198 74 231 373 909 1048 2040 2178 2054 1867 1791 1665 1669 1763 1937 2275 2242 2317 1987 2223 2267 2157 2438 2815 2966 3054 3209 2930 2164 1509 2007 2335
364 875 506 732 756 819 268 31 678 2489 2407 2075 2047 2094 1962 2022 2384 2457 2291 2524 2126 2735 2436 2731 2795 2941 3109 3215 3222 2038 901 949 2127
121 575 772 703 346 537 468 13 211 2569 2693 2765 2748 2262 2513 2305 2277 2391 2554 2496 2715 2457 2852 2717 2958 3006 3074 3204 3247 2775 953 80 1514
187 1 20 615 525 635 1241 1337 1422 1895 2837 2742 2474 3015 2458 2803 2248 2564 2558 2653 2583 2704 2742 2945 2952 3081 3206 3214 3237 2614 1852 16 921
1 9 2 340 639 764 1192 1393 1379 1390 1603 3295 2706 2424 3063 2681 2724 2625 2773 2722 2769 2829 2910 2938 3050 3044 3185 3230 3415 2896 951 98 1767
0 0 5 12 90 619 1359 2415 2006 1698 1725 1802 3350 2836 2560 3400 3444 2813 3201 3127 3108 3190 3234 3200 3356 3338 3358 3632 3494 3649 1254 0 2115
0 1 0 3 10 428 2317 3124 2947 2350 2368 2104 2717 3600 3117 3451 3384 3382 3176 3669 3645 3527 3513 3571 3596 3603 3695 3617 3945 3271 882 0 209
2 6 2 5 6 7 51 422 1832 3400 3328 3177 2810 4018 3528 3675 3860 3759 3404 3807 3770 3849 3849 3714 3613 3655 3643 3739 3653 3941 2508 78 0
0 15 13 1 4 1 4 4 24 721 1234 3369 3692 2828 3991 3842 4015 3851 3597 3789 3814 3898 3873 3851 3743 3421 3789 3597 3593 3637 3827 477 1
0 22 17 25 15 4 2 7 12 4 81 751 3368 3972 4013 3951 3905 3428 3811 3461 3816 3803 3729 3635 3624 3593 3280 3562 3357 3008 2782 2702 1969
34 16 10 30 2 0 2 8 7 7 5 5 1094 4200 4065 3784 3719 3685 3739 3352 1797 0 1319 983 2392 1851 3042 1378 743 317 264 2 1836
15 0 0 5 22 0 11 12 5 8 5 2 7 1250 3967 3492 2993 3287 3445 3380 2909 2103 60 1 2 273 1128 2178 948 785 331 9 0

GFSFLT1_con_sbcape_063.txt.gz
CAPE
26 7 12 291 118 61 54 180 173 253 296 649 605 260 224 388 1262 237 570 1033 923 1133 1290 1220 1348 1537 1512 1580 1887 1369 1531 1292 1700
2 491 289 333 253 150 100 139 155 307 363 322 711 554 78 296 940 484 313 517 944 834 796 1016 1363 2014 1534 1567 1757 1647 1527 1372 1849
413 419 507 290 150 255 175 156 214 207 463 436 677 698 438 67 355 956 327 289 750 986 376 1227 1347 2097 1585 1937 1751 1445 1597 1104 1513
490 173 237 232 255 56 136 41 151 291 621 510 628 563 872 321 58 573 660 455 145 910 671 1360 1984 1883 2132 2062 1850 2015 1900 1290 1715
433 154 65 205 118 7 22 5 330 241 518 788 764 807 693 949 324 87 621 442 492 124 803 870 1844 2041 2031 1881 1804 2101 2046 1802 1563
341 276 313 193 92 145 43 0 0 433 414 986 1019 1105 859 1018 909 221 198 227 351 128 1048 556 1900 1784 1869 1824 1760 1702 1991 2079 1829
521 396 348 216 82 0 0 0 3 444 448 599 1261 1372 1419 1145 1047 985 214 174 22 689 515 1862 1080 2035 1662 1976 1509 1638 1801 1898 2068
375 432 497 231 140 22 255 99 390 531 573 518 826 1503 1564 1451 1271 1080 1015 478 360 0 969 751 1744 1380 2134 1812 1983 1708 1529 1788 2138
221 269 83 124 63 0 261 73 10 484 630 733 654 1155 1583 1559 1402 1335 1237 1091 894 349 165 1303 829 1384 1613 2111 2096 2026 1653 1415 1922
231 68 0 0 39 10 8 67 334 128 431 726 883 886 1386 1464 1435 1461 1351 1270 1101 1119 354 718 1523 1344 1510 1741 2082 2027 1460 1023 1325
12 40 0 3 0 0 1 0 69 101 46 211 476 913 973 1375 1502 1455 1510 1396 1293 1121 1146 633 733 1365 1732 1883 1951 2175 891 580 951
0 0 0 0 0 0 0 31 6 55 251 258 264 965 1225 1377 1411 1609 1662 1396 1474 1190 1451 1414 1152 1499 1719 1978 2072 1982 1347 1 299
0 0 0 0 0 0 0 42 198 355 179 342 437 1361 1578 1502 1433 1591 1656 1698 1414 1639 1250 1398 1742 1515 1856 1993 2071 2019 1098 23 852
0 0 0 0 0 0 3 65 34 1515 671 836 908 1842 1979 1808 1656 1502 1738 1722 1800 1599 1762 1668 1646 1930 1866 2041 2017 2240 1402 7 1619
0 0 0 0 0 0 0 0 3 9 472 435 1167 1605 2029 2234 2195 1646 1857 1859 1863 1873 1789 1872 1839 1896 2067 2040 2201 2000 1408 109 65
0 0 0 0 0 0 0 0 0 3 2 1 29 1252 2496 1949 2403 2255 1901 2181 2034 2060 2044 2048 2063 2098 2138 2255 2300 2555 1562 264 0
0 0 0 0 0 0 0 0 0 1 0 1 1 441 2099 2711 2491 2638 2197 2594 2275 2297 2268 2351 2258 2352 2364 2379 2381 2613 2785 239 0
21 0 2 0 10 1 0 0 0 0 1 3 1 7 2052 2748 2603 2406 2721 2476 2828 2615 2606 2542 2530 2498 2493 2459 2731 2584 2839 2374 1076
23 39 3 0 2 0 0 0 0 0 0 3 3 2 902 2719 2817 2841 2812 2611 707 1 678 2324 2583 2620 2780 2574 1379 2756 2454 1732 1607
62 40 1 1 5 1 1 1 0 0 2 4 3 3 4 68 2719 3045 2929 2843 2508 1618 54 1 2 40 2451 1287 1060 9 33 3 243

GFSFLT1_con_sbcape_066.txt.gz
CAPE
71 128 87 114 3 0 16 0 0 290 364 197 79 140 137 515 142 76 263 479 614 849 1164 1150 1187 960 977 1113 730 944 789 745 955
159 224 70 218 43 15 36 9 0 9 390 216 85 48 0 75 510 480 114 496 448 718 758 791 1004 1070 968 1047 1226 727 926 920 962
270 174 346 352 124 67 70 92 14 0 74 293 242 80 0 0 109 517 79 205 397 754 617 765 819 1505 1094 959 1112 1038 816 743 882
87 310 332 317 235 157 77 182 180 78 34 107 439 336 104 0 5 133 517 49 91 314 413 561 783 1411 1220 1084 1156 888 1107 683 614
50 324 277 218 278 178 114 50 203 196 198 165 162 443 325 94 0 34 312 427 87 26 382 522 1071 1314 1484 1294 1281 1220 1175 1042 997
143 151 42 15 37 132 174 107 141 209 267 338 282 390 397 391 93 0 64 361 329 82 54 330 1414 1398 1613 1567 1467 1379 1388 1364 1068
150 143 87 60 124 189 84 16 2 43 277 523 438 444 472 524 593 175 0 46 261 221 39 64 822 1463 1443 1361 1473 1438 1510 1466 1356
68 31 12 34 115 95 70 17 0 0 75 437 660 570 657 487 687 719 280 0 15 45 167 276 243 988 1409 1455 1360 1275 1154 1310 1362
4 1 0 0 0 0 7 20 60 6 123 265 780 817 795 905 633 828 800 452 0 0 0 178 477 856 1123 1240 1520 1330 1131 1203 1368
0 10 17 9 0 0 0 0 7 61 48 159 416 1080 1117 1149 1215 1001 893 855 495 189 88 0 280 553 1095 1329 1386 1360 830 697 1047
0 2 2 0 2 0 0 0 39 67 281 313 291 556 1330 1536 1467 1365 1255 1004 912 634 465 82 0 549 493 1009 1313 1646 656 329 857
0 0 2 3 0 0 0 3 9 374 370 23 1 107 489 992 1580 1480 1404 1303 1144 1034 920 682 154 353 1035 817 766 850 813 47 813
0 0 0 0 0 0 0 1 1 90 341 92 0 191 271 491 954 1390 1462 1416 1330 1223 1101 1066 867 506 447 1134 1343 1213 315 1 1109
0 0 0 0 0 1 0 0 0 4 6 156 66 116 456 861 962 1209 1445 1430 1426 1359 1285 1138 1154 1058 839 741 888 1203 293 0 1175
0 0 0 0 0 0 0 0 0 0 4 1 4 2 2 218 1279 1363 1356 1471 1507 1378 1345 1287 1118 1299 1392 1167 1256 1101 471 0 55
0 0 0 0 0 0 0 0 0 0 0 0 3 2 0 20 688 1675 1408 1457 1519 1534 1353 1457 1490 1218 1244 1537 1567 1530 653 9 0
0 0 0 0 0 0 0 0 0 0 0 0 0 1 1 1 198 1828 1769 1540 1559 1541 1643 1493 1497 1636 1564 1482 1571 1719 1768 199 0
0 0 0 0 0 0 0 0 0 0 0 0 1 2 2 3 340 1780 2167 1835 1806 1659 1692 1691 1641 1598 1596 1634 1649 1674 1840 1923 1240
0 0 4 0 2 0 0 0 0 0 0 0 1 5 4 7 5 142 2170 2370 1104 1 260 1318 1420 1523 1680 1738 1686 1767 1784 1700 1511
1 26 0 0 6 0 0 0 0 0 0 0 1 3 4 5 0 6 1625 2422 2280 1760 49 2 9 361 1327 1647 1951 1024 1240 1403 756

GFSFLT1_con_sbcape_069.txt.gz
CAPE
464 252 151 127 0 0 0 0 0 58 15 0 0 66 80 0 0 48 96 182 65 414 638 990 885 750 627 697 386 481 416 566 808
399 196 99 171 16 0 0 0 0 68 59 20 0 33 45 100 6 0 21 214 102 360 512 889 793 944 721 800 730 598 612 635 599
332 272 46 68 60 0 10 7 8 71 126 70 24 0 28 62 168 164 0 0 395 270 418 493 701 1030 785 816 879 777 540 688 664
37 15 34 49 73 3 20 31 6 2 140 172 113 47 23 28 35 93 181 0 17 311 409 393 537 977 1051 914 860 904 778 538 537
0 34 92 148 115 11 0 19 28 0 49 191 173 126 44 0 0 0 161 132 0 0 94 159 487 570 1145 1018 908 826 819 866 869
37 70 0 2 16 18 7 2 19 2 0 76 189 214 155 45 0 0 20 94 105 0 0 11 229 609 972 1015 970 950 818 840 848
0 0 24 4 0 0 0 0 11 0 10 22 31 192 277 212 87 0 0 4 10 101 0 0 65 810 957 1144 1072 1045 1066 1075 1035
3 5 2 3 0 0 0 1 0 0 0 65 99 37 187 265 257 112 0 0 0 0 10 7 0 237 1016 1000 1142 1194 1117 1181 1189
3 2 5 4 4 0 0 0 0 3 14 8 280 247 205 283 269 326 124 0 0 0 0 0 0 0 205 838 1158 1160 1154 1216 1294
0 2 0 1 2 6 7 1 3 14 70 34 195 476 345 341 329 407 505 239 0 0 0 0 0 6 84 275 683 1127 832 371 1028
0 0 0 0 0 0 5 2 0 1 97 270 282 394 577 505 575 412 512 629 392 35 0 0 0 0 0 161 351 626 516 133 630
0 0 0 0 0 0 0 5 0 2 350 204 0 70 147 574 822 931 712 708 709 598 238 6 0 0 0 0 63 337 129 0 470
0 0 0 0 0 0 0 0 0 0 14 4 4 40 152 247 187 1203 1234 1107 914 806 642 499 295 128 0 0 103 94 0 0 730
0 0 0 0 0 0 0 0 0 2 0 1 3 8 3 1 130 429 555 1260 1262 1151 995 882 754 646 345 61 154 473 0 0 765
0 0 0 0 0 0 0 0 0 0 0 0 8 4 8 7 4 199 747 1016 1169 1317 1232 1091 989 931 870 677 343 196 154 0 12
0 0 0 0 0 0 0 0 0 0 0 0 2 4 2 3 3 4 318 1172 1115 1236 1271 1300 1171 1090 993 991 911 676 19 0 0
0 0 0 0 0 0 0 0 0 0 0 0 0 4 4 3 1 0 15 820 1316 1186 1301 1336 1236 1216 1108 935 1092 1249 1073 23 0
0 0 0 0 0 13 4 0 0 0 0 0 0 0 4 2 2 3 2 9 1263 1341 1383 1464 1402 1281 1248 1151 1036 1099 1394 1415 727
0 0 0 0 2 7 0 0 0 0 0 0 1 3 1 1 3 2 4 4 99 141 213 680 878 952 1253 1284 1177 1147 1085 1037 904
31 16 1 39 42 0 0 0 0 0 0 0 0 0 1 1 1 0 6 4 4 587 577 2 0 0 118 441 1377 461 859 314 339

GFSFLT1_con_sbcape_072.txt.gz
CAPE
200 188 169 106 0 0 0 0 0 0 0 0 0 0 0 0 37 67 58 33 34 146 423 651 814 793 691 795 318 406 551 582 869
92 334 176 66 0 0 0 0 0 0 0 0 0 0 0 0 0 27 76 83 60 113 371 705 950 915 749 772 614 593 616 670 827
2 298 132 75 16 0 0 0 0 0 25 4 0 0 13 14 0 0 0 51 162 187 336 457 912 980 943 865 796 869 797 823 761
32 11 207 65 64 0 0 0 0 0 46 65 4 1 41 56 34 0 0 0 110 317 325 403 617 988 1126 930 752 931 561 698 829
4 55 68 109 59 0 0 0 0 0 0 0 36 14 5 1 1 56 104 0 0 72 363 327 538 668 1095 1156 1058 929 1162 1076 1065
3 1 0 9 19 17 9 0 0 0 0 2 36 0 13 16 0 0 48 105 4 0 81 178 327 612 817 1152 1193 1111 1095 1164 1144
0 1 4 2 0 0 1 10 1 49 0 0 29 18 1 4 6 0 0 0 39 0 8 99 94 371 651 978 1151 1168 1191 1119 1142
0 1 1 3 5 4 2 3 12 23 36 12 0 99 134 63 4 0 0 0 0 8 17 21 85 206 597 907 1195 1149 1224 1236 1252
2 6 6 3 1 3 3 7 7 41 56 50 64 63 146 302 260 132 0 0 0 0 0 36 0 36 323 781 950 1114 993 1031 1321
0 0 1 7 4 1 3 5 11 5 5 71 77 260 190 143 298 299 236 46 0 0 0 0 4 0 28 255 657 685 718 477 1337
0 0 0 0 3 0 0 1 0 1 23 286 122 111 340 322 271 355 401 373 124 0 0 0 0 0 10 54 140 192 39 113 831
0 0 0 0 0 0 0 0 0 1 6 5 17 29 63 307 466 436 462 510 559 375 61 0 0 0 0 1 34 0 0 0 538
0 0 0 0 0 0 0 0 0 0 8 3 3 3 3 1 6 538 806 534 566 499 559 381 116 28 8 0 0 0 0 0 276
0 0 0 0 0 0 0 0 0 0 1 5 0 4 9 3 3 30 398 789 856 628 677 628 736 497 344 171 0 34 0 0 163
0 0 0 0 0 0 0 0 0 0 0 5 3 2 2 9 4 0 36 122 312 970 1254 1078 1011 994 849 690 385 2 8 0 1
0 0 0 0 0 0 0 0 0 0 0 0 1 2 1 1 8 4 2 20 158 767 1149 1391 1341 1295 1169 1157 1087 665 2 0 0
0 0 0 0 0 0 0 0 0 0 0 0 0 2 2 2 2 8 7 6 6 167 1183 1323 1449 1515 1400 1352 1290 1197 1015 6 0
0 0 0 0 0 0 2 4 0 0 0 0 0 2 1 4 6 5 4 5 4 2 129 1143 1412 1495 1478 1479 1356 1277 1112 986 275
13 5 1 0 0 0 0 15 3 0 0 0 0 2 1 5 5 3 1 4 1 0 0 2 13 65 1194 1476 1141 1023 785 531 224
1 4 26 28 7 1 1 0 0 0 0 0 0 3 5 7 2 3 7 13 5 3 0 0 5 3 2 7 1059 707 252 116 0

GFSFLT1_con_sbcape_075.txt.gz
CAPE
57 445 589 387 122 105 139 159 263 269 410 877 654 729 1103 1302 1188 987 998 1394 1148 1383 1364 1534 1955 2330 2175 2202 1989 1807 1850 1804 1764
108 342 258 557 427 175 193 208 300 359 561 727 608 639 986 1136 1198 1139 1085 1197 1385 1202 1531 1285 1884 2004 2276 2182 2197 2126 2041 1652 2325
13 124 498 546 714 264 266 253 286 310 389 662 927 691 786 755 717 863 1119 1268 1434 1405 1517 1746 1635 2067 2193 2310 2321 2252 2245 1879 1942
8 301 433 723 654 356 309 270 252 261 316 393 437 454 887 835 771 658 859 973 1252 1623 1808 1980 2034 2121 2128 2261 2334 2412 2477 2355 2104
7 3 164 526 648 330 338 278 248 229 340 323 343 564 629 658 810 756 663 808 922 1176 1651 1819 2073 2195 2270 2295 2328 2403 2446 2350 1953
3 5 7 10 62 159 467 301 245 211 240 252 346 495 313 202 410 726 793 901 901 988 1151 1563 1573 1919 2180 2326 2351 2409 2450 2519 2428
2 2 3 4 5 7 18 78 426 416 298 232 337 377 419 408 261 262 658 1216 1253 1024 1070 1329 1410 1658 1878 2099 2397 2464 2435 2422 2517
0 0 0 2 4 5 6 8 6 118 353 353 386 560 529 613 809 477 325 876 1336 1106 1098 1070 1172 1341 1473 1708 1750 1751 2190 2360 2491
0 0 0 0 1 4 1 10 9 4 7 181 316 383 713 945 965 1067 1066 1175 1274 1270 1090 1079 1124 1026 1372 1408 1161 674 744 1568 2187
0 0 0 0 0 0 7 7 11 2 4 76 471 575 624 730 1092 1067 1230 980 1022 1119 1268 1146 1169 1027 1024 1482 1708 819 213 402 1499
0 0 0 0 0 0 0 1 0 0 2 11 214 832 679 862 854 901 1082 1116 1062 1215 912 1086 1043 984 1178 1311 1256 578 56 2 1304
0 0 0 0 0 0 0 0 2 3 0 8 4 11 101 218 697 1157 1049 1124 1196 1184 977 845 799 841 984 1226 1383 234 1 0 936
0 0 0 0 0 0 0 0 0 6 0 6 6 4 11 19 89 313 1225 1282 1370 1359 1378 1118 960 839 860 552 1087 551 0 0 378
0 0 0 0 0 0 0 0 0 2 7 4 4 3 0 3 18 20 44 1022 1748 1531 1693 1658 1578 1492 1392 1253 964 810 0 0 402
0 0 0 0 0 0 0 0 0 4 5 16 5 0 0 0 7 20 17 58 75 349 1135 1417 1702 1721 1832 1776 1632 587 182 0 0
0 0 0 0 0 0 0 0 0 4 9 18 11 0 0 0 0 3 20 15 70 444 555 1000 1584 1763 1757 1754 1816 1841 195 0 0
1 0 0 0 2 1 0 0 0 0 12 29 4 1 0 0 0 0 5 6 8 17 99 498 774 1577 2015 1953 1819 1945 1933 726 24
18 21 15 14 17 15 9 2 0 0 3 32 9 1 0 0 0 0 0 1 0 0 2 56 573 1149 1531 1953 2140 2058 1689 1718 1861
10 27 27 41 53 38 21 25 30 16 17 18 3 5 6 0 0 1 1 0 0 0 0 0 0 0 0 107 1089 939 980 898 741
22 26 22 10 21 7 29 3 12 14 9 0 0 2 4 3 0 0 1 0 0 0 0 0 0 0 0 2 12 507 6 43 0

GFSFLT1_con_sbcape_078.txt.gz
CAPE
27 818 1206 843 708 700 651 588 628 778 1001 1524 1670 1600 1751 1999 2096 1615 1417 1327 946 1042 1199 1402 1759 2554 1722 1779 1841 2069 2458 1528 1243
299 471 1128 1087 851 744 741 776 792 907 1125 1508 1596 1491 1664 1870 2082 1934 1190 1108 1290 1211 1442 1195 1830 2240 2174 1800 1797 1882 2253 1692 1840
201 560 882 1112 1147 846 772 814 898 1047 1184 1395 1631 1458 1477 1623 1732 1879 1767 1488 1431 1470 1158 1755 1469 2358 2363 2088 2264 2386 2516 1789 1881
22 121 641 828 836 1029 861 831 894 968 1146 1287 1543 1529 1463 1496 1486 1580 1719 1508 1445 1732 1529 1694 2188 2522 2414 2312 2223 2325 2855 2488 1912
10 12 7 5 100 904 1013 950 993 985 980 967 1186 1252 1580 1619 1961 1473 1321 1505 1386 1584 1777 1760 2231 2562 2653 1884 2067 2343 2809 2522 1827
5 4 2 7 11 14 69 174 983 919 918 877 867 939 901 1089 1144 1337 1306 1329 1496 1512 1685 1714 1594 2152 2679 2509 1997 2479 2704 2806 2611
0 0 1 3 6 14 12 18 65 210 924 817 759 852 1034 972 1118 1191 1215 1325 1497 1560 1689 1751 1607 1741 2129 2439 2242 2221 2629 2851 2927
0 0 0 0 0 2 9 8 13 11 19 282 1112 1012 1012 1119 1304 1221 1175 1010 1344 1569 1744 1783 1792 1622 1735 2020 2099 2058 2685 2802 2754
0 0 0 0 0 0 0 1 4 0 5 11 548 1085 1131 1348 1323 1428 1536 1371 913 1540 1710 1871 1904 1837 1567 1464 1071 711 949 1445 2482
0 0 0 0 0 0 0 0 0 0 0 7 1 630 1292 1071 1228 1556 1589 1630 1713 1629 1616 1827 2012 1881 1821 2002 1833 472 215 378 1364
0 0 0 0 0 0 0 0 0 0 1 4 2 0 1 1 792 1255 1785 1875 1919 1810 1760 1743 1767 1803 2166 2026 2089 942 265 7 1189
0 0 0 0 0 0 0 0 0 0 0 4 5 0 4 4 4 73 901 1664 1784 2092 2052 1948 1756 1710 1868 2180 2253 989 184 0 1089
0 0 0 0 0 0 0 0 0 0 0 0 7 5 6 9 14 8 5 389 1382 1805 2011 1708 1780 1731 1766 1478 1930 1439 239 0 917
0 0 0 0 0 0 0 0 0 0 0 0 1 3 3 1 5 17 12 9 126 1172 2150 2633 2414 1956 2210 2285 1782 1747 275 0 974
0 0 0 0 0 0 0 0 0 0 0 0 2 4 2 3 2 0 8 27 55 61 546 976 2030 2298 2789 2252 2724 1476 1117 0 7
0 0 0 0 0 0 0 0 0 0 0 0 1 5 5 2 2 0 0 5 9 55 138 575 1339 1834 1775 2659 2179 2539 1127 99 0
1 4 6 9 11 8 10 8 7 9 3 1 1 6 9 2 0 0 0 0 0 1 1 4 153 528 1684 1920 2522 2788 2149 1306 126
7 15 8 12 23 22 5 1 15 24 37 31 6 6 8 2 0 0 0 0 0 0 0 0 2 11 52 368 1248 2355 0 6 2231
5 13 14 21 19 34 28 21 23 26 10 9 30 39 7 0 0 0 0 0 0 0 0 0 0 0 0 0 0 0 0 0 1
5 8 23 25 30 13 19 22 32 30 29 16 1 5 34 15 3 2 0 0 0 0 0 0 0 0 0 0 0 0 0 2 0

GFSFLT1_con_sbcape_081.txt.gz
CAPE
515 904 552 487 723 715 454 230 440 711 1310 1935 1913 1884 2731 2940 2440 1669 1207 1711 2200 1834 1422 1742 2919 2168 1867 1844 1838 1949 2127 1889 1853
741 204 1077 845 791 524 591 621 413 816 1462 1830 2068 1878 2682 2835 2868 2540 1779 2257 1900 1184 2643 1511 2082 1670 1821 1837 1855 1927 2274 1984 2596
360 1182 702 354 583 802 801 783 529 768 1150 1620 2054 2052 1985 2019 2166 2476 2364 1627 1875 1598 1760 1589 1103 1745 2546 2161 1806 2000 2355 2732 2529
9 24 220 270 393 829 515 1002 1013 966 1140 1462 1860 2039 2136 2204 2189 2041 2262 1964 1718 1872 1688 1796 1742 2147 2618 2254 2650 2240 3207 3078 2483
9 9 9 11 14 39 256 358 536 895 1089 1279 1606 1860 2656 1985 2438 2478 1883 2131 1901 1888 2362 1946 1998 2352 2327 2396 2046 2608 2670 2377 1788
3 3 3 1 4 4 10 38 506 361 163 829 1187 1591 1777 2006 1896 1831 2014 2259 1996 2636 2377 2404 1529 2258 2867 2510 1963 2856 2882 2663 2767
0 0 0 1 1 6 9 10 12 40 219 534 508 1126 1515 1648 1778 1744 1844 2396 2830 2067 2947 2629 2335 2432 2895 2575 2064 1984 2318 2848 2843
0 1 0 0 0 0 1 3 7 5 10 127 508 1396 1406 1882 1773 1640 1765 1918 2267 2403 2868 2848 2890 2917 2651 2752 2091 1864 2635 2661 2846
0 0 0 0 0 0 0 0 1 0 4 7 31 110 409 502 1836 1882 2080 1989 1944 1997 2245 3283 3553 3048 2995 2673 1409 676 898 1782 2980
0 0 0 0 0 0 0 0 0 0 0 0 0 0 0 0 130 984 1610 2234 2571 2341 1971 2571 3442 3320 3139 3267 3167 1240 90 631 1627
0 0 0 0 0 0 0 0 0 0 0 1 0 0 0 0 2 59 442 1092 1913 2304 2547 2657 2824 3144 3482 3594 3176 1765 784 0 1761
0 0 0 0 0 0 0 0 0 0 0 0 8 1 0 0 0 4 9 145 213 1603 2422 2272 2185 2262 2947 3007 3496 2013 766 42 1419
0 0 0 0 0 0 0 0 0 0 0 0 0 0 3 6 2 1 4 4 22 265 1518 2017 2735 2017 2555 2035 2923 2400 1693 15 1476
0 0 0 0 0 0 0 0 0 0 0 0 0 0 1 1 3 2 0 2 17 31 55 678 1729 2186 2603 3022 2549 2720 1418 246 1937
0 0 0 0 0 0 0 0 0 0 0 0 0 0 0 2 2 0 0 7 1 8 41 102 578 1662 2097 2723 2830 1909 1771 63 46
0 0 4 1 2 2 1 4 3 1 2 3 1 0 0 0 1 0 0 0 0 0 91 377 383 381 1308 1552 1710 2900 1563 77 0
0 3 5 3 6 8 9 12 11 8 7 6 7 13 3 0 0 0 0 0 0 0 0 0 0 80 80 68 330 2073 2176 83 7
4 3 4 7 10 9 13 14 10 9 20 21 17 8 4 2 0 0 0 1 0 0 0 0 0 0 0 0 0 37 0 0 8
5 7 7 8 8 11 11 11 15 17 17 15 17 25 5 0 0 0 0 0 0 0 0 0 0 0 0 0 0 0 0 0 0
1 5 4 8 10 9 10 12 9 7 17 14 25 17 22 15 3 3 3 0 0 0 0 0 0 0 0 0 0 0 0 0 0

GFSFLT1_con_sbcape_084.txt.gz
CAPE
46 101 603 286 677 618 809 108 386 1017 2112 2400 2244 2083 2446 2742 2962 2264 2110 2573 2954 902 734 1101 2077 2499 2815 3099 2666 2463 2836 3343 2915
546 832 945 591 656 594 944 226 570 1005 2047 2455 2597 2409 2724 3206 3107 3001 1650 2401 3142 2348 1880 838 2097 860 2608 2883 2890 2624 2726 2345 2982
4 13 539 316 268 89 989 382 653 1323 2143 2468 2513 2299 2659 2807 2998 3028 3092 3443 3352 3329 2717 1086 626 791 872 2971 2962 2755 2927 2486 2308
8 5 22 118 34 0 296 614 273 943 2135 2412 2591 2556 2542 2512 2635 2834 3110 2956 3291 2995 2890 1591 679 0 221 2626 3131 2811 2951 2352 2162
12 5 2 8 5 1 5 4 575 659 345 1597 2150 2350 2714 2713 2933 2561 2725 2857 2902 3271 3134 3149 2991 2354 2580 2872 2698 2540 2676 2751 2150
7 7 9 10 10 4 2 2 2 23 355 555 947 2135 2565 2610 2555 2675 2674 2872 2792 3187 3171 3016 2662 2650 3165 3040 3108 3194 2956 2740 2864
2 5 7 7 8 6 16 6 5 11 38 21 382 914 437 2490 2612 2584 2394 3188 3210 2957 3297 3139 3026 3019 3246 2852 3025 2993 2873 3121 3021
0 0 0 0 0 0 2 6 3 6 12 6 48 281 455 473 789 2231 2825 2865 2631 3169 3130 3096 3255 3189 2911 3226 2963 2259 2598 2870 2985
0 0 0 0 0 0 0 0 0 2 10 5 1 5 24 153 567 758 1618 2326 2454 2651 2998 3259 3275 3035 3130 2817 1993 1298 1013 1670 2215
0 0 0 0 0 0 0 0 0 0 0 0 0 0 0 3 17 136 195 612 1925 2310 2393 2374 2893 2991 3129 2970 3019 1946 1011 0 1957
0 0 0 0 0 0 0 0 0 0 1 0 0 0 0 0 0 3 25 232 188 319 1003 2252 2247 2422 2818 2888 2949 2475 1953 1130 558
0 0 0 0 0 0 0 0 0 0 0 6 0 1 6 0 0 0 0 3 1 13 121 319 1459 2127 2287 2485 2773 2225 1511 469 956
0 0 0 0 0 0 0 0 0 0 0 0 0 0 3 4 5 6 0 0 3 35 80 166 493 1069 2012 2009 2159 2230 1852 654 1771
0 0 0 0 0 0 0 0 0 0 0 0 0 0 0 1 11 0 12 8 6 0 31 182 268 711 1554 2011 2011 2349 1804 898 1182
0 0 0 0 0 0 0 0 0 0 6 9 12 13 4 0 1 3 0 0 0 0 0 102 296 396 807 1933 1888 1388 751 10 0
0 0 0 0 0 0 0 0 0 0 6 11 14 7 5 23 8 0 3 8 0 0 0 9 210 220 256 215 140 353 0 0 0
2 4 0 0 0 0 3 1 3 0 3 17 10 15 16 5 0 0 0 0 0 0 0 0 0 0 0 0 0 235 0 0 0
1 3 5 3 2 3 5 3 4 3 9 14 2 5 2 1 0 0 0 2 5 1 0 0 0 0 0 0 0 0 0 0 0
3 4 3 7 8 10 8 5 6 4 4 7 5 4 1 0 0 0 0 0 0 0 0 0 0 0 0 0 0 0 0 0 0
0 1 0 1 3 6 11 12 7 6 4 8 5 2 1 0 0 0 0 3 2 0 0 0 0 0 0 0 0 0 0 0 0

GFSFLT1_con_sbcape_090.txt.gz
CAPE
88 45 48 62 52 78 142 141 427 762 216 161 180 321 629 572 626 520 429 443 252 634 419 230 413 1068 1080 905 846 699 1033 912 1022
97 43 21 41 25 95 116 92 218 652 628 283 275 359 476 498 789 624 546 580 178 722 358 52 365 488 981 1162 1085 613 1028 952 1179
59 59 10 2 0 126 83 49 58 298 896 681 420 596 432 740 722 842 669 477 782 483 277 375 858 723 920 993 1098 924 878 999 716
52 45 88 267 30 64 55 33 70 203 479 683 763 802 746 764 1107 1072 969 1117 1148 838 410 397 425 390 623 613 1045 1203 985 774 788
3 2 21 127 71 73 32 41 38 55 143 193 193 218 507 895 1044 1216 1199 1143 1274 1153 599 282 167 174 79 67 473 947 1087 1004 1252
2 3 2 2 1 28 43 14 18 73 111 99 69 73 146 583 582 783 1232 1507 1622 1360 700 369 336 118 0 0 16 552 1232 1060 900
2 4 4 3 3 1 1 2 30 48 118 54 43 65 14 5 178 250 436 912 1257 1031 1210 704 556 507 331 406 720 904 965 1243 849
0 0 3 3 2 2 2 2 1 1 9 19 45 32 37 29 140 148 314 745 920 1430 1079 1128 1154 1115 1235 1170 1204 1212 1209 1424 1515
0 0 0 0 1 1 1 1 1 1 1 4 0 25 1 10 35 81 96 83 100 244 511 903 1087 1302 1175 1105 1479 1870 1420 1167 1270
0 0 0 0 0 0 0 1 0 0 0 0 0 1 2 2 16 9 9 10 35 67 76 165 478 649 903 1176 1225 1310 1092 590 148
0 0 0 0 0 0 0 0 0 0 1 1 1 1 1 1 1 1 1 3 0 23 10 42 90 221 305 487 944 1182 909 643 83
0 0 0 0 0 0 0 0 0 0 0 0 0 0 0 0 1 0 0 0 5 4 0 0 17 117 114 226 439 468 76 1 201
0 0 0 0 0 0 0 0 0 0 0 0 0 0 0 0 0 0 0 0 0 0 0 0 1 0 53 52 458 1 1 1 26
0 0 0 0 0 0 0 0 0 0 0 0 0 0 0 0 0 0 0 0 0 0 0 0 0 0 1 4 0 0 0 0 0
0 0 0 0 0 0 0 0 0 0 0 0 0 0 0 0 0 0 0 0 0 0 0 0 0 0 2 1 0 0 0 0 0
0 0 0 0 0 0 0 0 0 0 0 0 0 0 0 0 0 0 0 0 0 0 0 0 0 0 0 0 0 0 1 0 0
0 0 0 0 0 0 0 0 0 0 0 0 0 0 0 0 0 0 0 0 0 0 0 0 0 0 0 0 0 0 0 0 0
0 0 0 0 0 0 0 0 0 0 0 0 0 0 0 0 0 0 0 0 0 0 0 0 0 0 0 0 0 0 0 0 0
0 0 0 0 0 0 0 0 0 0 0 0 0 0 0 0 0 0 0 0 0 0 0 0 0 0 0 0 0 0 0 0 0
0 0 0 0 0 0 0 0 0 0 0 0 0 0 0 0 0 0 0 0 0 0 0 0 0 0 0 0 0 0 0 0 0

GFSFLT1_con_sbcape_093.txt.gz
CAPE
33 24 78 36 72 29 82 161 337 250 77 24 0 146 301 366 357 77 38 241 299 400 348 443 446 740 908 585 541 339 0 659 804
23 34 18 59 94 164 162 131 462 294 136 39 5 63 258 324 416 300 278 241 242 226 468 249 139 400 855 564 665 566 675 771 831
7 3 5 40 49 123 112 56 129 435 357 189 132 72 155 305 432 487 321 260 423 241 361 242 99 401 465 770 961 924 471 811 686
12 13 20 2 64 79 36 68 152 248 471 479 360 325 220 253 405 495 580 471 476 647 376 240 350 603 539 631 726 809 715 603 659
33 37 68 64 38 42 25 60 68 111 187 179 139 155 375 515 498 626 678 527 710 898 841 204 297 286 268 331 367 634 927 921 898
2 25 3 79 90 66 94 121 129 83 40 65 16 10 79 257 350 512 687 806 886 922 1028 406 188 131 119 49 26 136 623 927 707
1 3 3 2 1 4 25 26 68 99 117 96 20 39 42 118 37 82 208 327 610 680 902 697 336 223 97 2 0 11 226 680 813
4 4 3 3 1 1 2 3 33 123 107 68 37 35 22 39 74 73 64 32 61 316 612 836 609 354 440 395 494 690 804 806 974
2 3 4 4 3 1 1 3 2 3 1 4 12 31 34 52 16 4 6 3 8 4 41 142 346 609 668 714 1125 1519 1309 923 902
0 0 1 1 1 2 2 1 1 2 1 0 1 1 2 2 3 0 0 0 0 2 1 15 45 152 322 530 490 883 695 456 419
0 0 0 0 0 0 1 2 1 0 0 0 0 0 3 5 4 2 0 0 0 0 0 0 8 54 54 97 249 43 36 1 5
0 0 0 0 0 0 0 0 0 0 0 0 0 0 0 0 0 0 4 0 1 0 0 0 0 12 30 84 98 1 1 62 133
0 0 0 0 0 0 0 0 0 0 0 0 0 0 0 0 0 0 0 0 0 0 0 0 0 0 34 5 0 0 0 0 0
0 0 0 0 0 0 0 0 0 0 0 0 0 0 0 0 0 0 0 0 0 0 0 0 0 18 8 0 0 0 0 0 0
0 0 0 0 0 0 0 0 0 0 0 0 0 0 0 0 0 0 0 0 0 0 0 0 0 0 0 0 0 0 0 0 0
0 0 0 0 0 0 0 0 0 0 0 0 0 0 0 0 0 0 0 0 0 0 0 0 0 0 0 0 0 0 0 0 0
0 0 0 0 0 0 0 0 0 0 0 0 0 0 0 0 0 0 0 0 0 0 0 0 0 0 0 0 0 0 0 0 0
0 0 0 0 0 0 0 0 0 0 0 0 0 0 0 0 0 0 0 0 0 0 0 0 0 0 0 0 0 0 0 0 0
0 0 0 0 0 0 0 0 0 0 0 0 0 0 0 0 0 0 0 0 0 0 0 0 0 0 0 0 0 0 0 0 0
0 0 0 0 0 0 0 0 0 0 0 0 0 0 0 0 0 0 0 0 0 0 0 0 0 0 0 0 0 0 0 0 0

GFSFLT1_con_sbcape_096.txt.gz
CAPE
61 0 17 118 91 61 60 86 150 165 43 0 0 5 155 158 84 85 97 125 298 376 362 460 480 717 842 615 502 166 32 484 912
18 15 42 99 59 38 86 73 263 144 122 40 2 1 110 196 212 114 82 161 199 292 330 379 315 480 897 662 530 650 707 890 954
18 32 1 26 21 7 44 72 224 193 136 53 29 17 77 136 262 246 198 153 255 162 140 340 292 153 341 700 760 811 542 842 827
15 24 71 57 114 94 88 92 164 418 187 70 113 61 17 112 197 276 296 246 334 468 400 262 131 215 369 538 710 879 905 672 744
1 0 1 25 65 72 56 29 145 209 218 117 144 173 165 93 138 280 370 302 362 572 759 337 87 268 467 550 383 672 904 901 970
18 15 52 1 34 47 42 43 82 134 59 15 1 6 97 194 175 293 302 445 585 619 717 566 224 177 183 106 130 310 556 711 880
17 12 73 134 64 82 57 49 108 84 28 7 1 35 44 27 59 1 58 157 216 306 561 765 360 228 251 177 138 51 32 399 918
2 4 2 10 53 39 8 49 119 128 127 74 50 33 15 32 34 3 3 2 1 19 101 311 504 472 350 261 125 142 331 516 799
4 10 4 2 5 2 1 1 6 10 23 58 42 28 20 1 17 3 0 9 1 0 0 0 1 238 382 451 594 845 554 590 1083
5 7 3 7 3 2 2 2 2 1 1 1 2 2 2 4 0 2 0 0 0 0 0 0 0 16 22 62 176 1 1 0 288
0 0 0 0 3 4 1 0 0 0 0 0 0 0 0 1 4 4 3 0 0 0 0 0 0 0 6 84 18 1 1 1 72
0 0 0 0 0 2 0 0 0 0 0 0 0 0 0 0 0 0 0 2 4 0 0 0 0 0 44 0 1 0 0 2 63
0 0 0 0 0 0 0 0 0 0 0 0 0 0 0 0 0 0 0 0 0 0 0 0 0 5 4 0 3 0 0 0 0
0 0 0 0 0 0 0 0 0 0 0 0 0 0 0 0 0 0 0 0 0 0 0 0 0 0 0 0 0 0 0 0 0
0 0 0 0 0 0 0 0 0 0 0 0 0 0 0 0 0 0 0 0 0 0 0 0 0 0 0 0 0 0 0 0 0
0 0 0 0 0 0 0 0 0 0 0 0 0 0 0 0 0 0 0 0 0 0 0 0 0 0 0 0 0 0 0 0 0
0 0 0 0 0 0 0 0 0 0 0 0 0 0 0 0 0 0 0 0 0 0 0 0 0 0 0 0 0 0 0 0 0
0 0 0 0 0 0 0 0 0 0 0 0 0 0 0 0 0 0 0 0 0 0 0 0 0 0 0 0 0 0 0 0 0
0 0 0 0 0 0 0 0 0 0 0 0 0 0 0 0 0 0 0 0 0 0 0 0 0 0 0 0 0 0 0 0 0
0 0 0 0 0 0 0 0 0 0 0 0 0 0 0 0 0 0 0 0 0 0 0 0 0 0 0 0 0 0 0 0 0

GFSFLT1_con_sbcape_099.txt.gz
CAPE
200 148 76 212 314 231 459 421 412 440 502 705 568 769 1120 1366 1681 1201 1518 1644 1304 1364 1542 1382 1804 1879 2040 1937 1899 1618 1532 1591 1963
250 202 85 164 346 456 502 216 384 543 632 577 451 460 1000 1166 1188 1270 1293 1373 1417 1316 1575 1464 1533 1723 1688 2019 1888 1910 1831 1227 1987
263 216 110 204 163 166 214 240 309 417 599 610 490 432 774 902 1171 1277 1354 1409 1507 1470 1403 1492 1583 1503 1563 1851 1971 1986 1986 1880 2122
442 268 307 415 292 143 108 204 157 494 609 482 535 410 668 934 958 1374 1479 1390 1350 1622 1556 1621 1628 1528 1236 1260 1422 1772 2359 2279 1779
478 399 330 529 465 298 115 56 187 519 980 508 737 634 712 706 1076 1276 1414 1489 1501 1531 1433 1687 1645 1539 1713 1781 1674 1865 2103 2056 1908
365 375 331 417 479 511 311 136 87 226 351 418 252 415 774 853 912 976 1073 1313 1439 1498 1418 1782 1711 1550 1662 1783 1408 1219 1529 1806 1777
356 430 458 478 454 495 512 360 274 203 107 82 105 229 294 387 757 1106 1121 1302 1233 1484 1603 1622 1822 1637 1586 1567 1198 1049 1045 1144 1588
357 337 339 422 473 502 529 587 540 292 211 32 13 36 29 71 196 186 542 694 740 708 1169 1339 1612 1631 1511 1488 1289 859 1000 1135 1133
245 235 182 330 335 310 296 437 432 430 217 87 26 60 68 70 40 142 258 301 291 294 366 616 723 796 891 823 969 0 1 211 1783
117 124 86 104 48 8 33 67 39 33 40 50 82 137 110 48 9 4 9 77 126 135 181 207 256 325 460 250 4 0 1 1 1452
40 14 3 4 2 2 1 1 1 0 0 0 0 0 2 4 5 3 1 18 37 41 57 47 117 334 8 0 0 0 0 5 933
0 1 1 2 1 1 1 0 0 0 0 0 0 0 0 0 3 3 3 3 1 0 2 1 218 3 2 0 0 0 0 0 0
2 1 2 2 1 3 0 0 0 0 0 0 0 0 0 0 0 0 0 2 0 3 5 31 9 2 0 0 0 0 0 0 0
4 1 0 0 0 1 0 0 0 0 0 0 0 0 0 0 0 0 0 0 0 0 0 0 0 0 0 0 0 0 0 0 0
0 0 0 0 0 0 0 0 0 0 0 0 0 0 0 0 0 0 0 0 0 0 0 0 0 0 0 0 0 0 0 0 0
0 0 0 0 0 0 0 0 0 0 0 0 0 0 0 0 0 0 0 0 0 0 0 0 0 0 0 0 0 0 0 0 0
0 0 0 0 0 0 0 0 0 0 0 0 0 0 0 0 0 0 0 0 0 0 0 0 0 0 0 0 0 0 0 0 0
0 0 0 0 0 0 0 0 0 0 0 0 0 0 0 0 0 0 0 0 0 0 0 0 0 0 0 0 0 0 0 0 0
0 0 0 0 0 0 0 0 0 0 0 0 0 0 0 0 0 0 0 0 0 0 0 0 0 0 0 0 0 0 0 0 0
0 0 0 0 0 0 0 0 0 0 0 0 0 0 0 0 0 0 0 0 0 0 0 0 0 0 0 0 0 0 0 0 0

GFSFLT1_con_sbcape_102.txt.gz
CAPE
333 230 388 336 455 766 880 860 1010 831 1113 1465 1476 1318 1479 1620 1175 661 545 791 1371 884 1445 1128 1790 1366 1510 1641 1470 1939 2140 1971 1608
468 280 292 353 513 800 825 878 1076 999 1020 1321 1323 1109 1383 1278 929 934 1043 1013 1248 1239 1165 1682 1772 1786 1545 1707 1641 1933 2027 1508 2010
494 313 158 293 479 740 614 746 1023 889 1102 1303 1092 961 1065 1019 966 952 644 903 761 1164 1784 1843 2003 2047 1893 1519 1548 1465 1792 1484 1661
665 535 471 313 401 742 917 985 829 508 1101 1240 1130 935 815 871 928 742 1048 947 793 1097 956 1592 1799 2228 2115 1847 1679 1782 2204 2024 1577
640 475 623 688 448 480 834 858 587 545 812 776 1063 927 1074 925 520 819 673 1037 853 1190 1079 1472 1404 1674 2286 1790 1291 1585 2038 1725 1211
1177 893 781 840 920 680 700 341 181 192 457 1041 804 1176 1000 1348 543 532 788 920 1019 1252 1052 1158 1264 1601 1555 1179 1666 1612 1611 1577 1639
1027 984 899 961 1028 957 1044 697 377 178 179 421 590 891 1010 707 740 742 792 1035 1352 1257 1665 1013 1035 1248 1691 1414 1231 1506 1725 1595 1619
781 684 743 804 812 865 975 1025 678 403 145 54 89 231 258 623 970 1042 1236 1223 1438 1500 1588 1228 1940 1413 1768 1819 1557 1084 1879 1916 1804
688 830 781 905 853 870 914 954 887 643 540 324 229 67 35 59 143 373 764 1017 1206 1313 1528 1762 1808 1834 1794 1588 1243 0 1 140 1837
778 638 666 878 1028 972 1000 1150 990 913 586 373 295 75 40 41 124 154 175 284 618 836 1043 1134 1144 1185 1135 273 59 0 0 0 1544
522 431 229 63 10 4 7 129 442 446 397 409 380 263 136 227 101 32 10 26 104 252 304 510 725 392 144 0 0 0 0 135 1448
261 86 9 4 5 3 2 1 1 1 1 1 1 2 5 14 5 3 3 2 24 69 278 322 426 103 3 0 0 0 0 170 291
4 5 4 4 3 3 1 0 0 0 0 0 0 0 0 0 0 34 88 64 4 2 162 26 0 0 0 0 0 0 0 0 54
6 5 4 3 1 3 3 0 0 0 0 0 0 0 0 0 0 6 4 4 9 7 0 0 0 0 0 0 0 0 0 0 0
3 1 0 0 0 0 0 0 0 0 0 0 0 1 0 0 0 0 1 11 14 3 0 0 0 0 0 0 0 0 0 0 0
1 0 0 0 0 0 0 1 0 0 0 0 0 0 0 0 0 0 0 4 0 0 0 0 0 0 0 0 0 0 0 0 0
0 0 0 0 0 0 0 0 0 0 0 0 0 0 0 0 0 0 0 0 0 0 0 0 0 0 0 0 0 0 0 0 0
4 0 0 0 0 0 0 0 0 0 0 0 0 0 0 0 0 0 0 0 0 0 0 0 0 0 0 0 0 0 0 0 0
0 0 0 0 0 0 0 0 0 0 0 0 0 0 0 0 0 0 0 0 0 0 0 0 0 0 0 0 0 0 0 0 0
1 0 0 0 0 0 0 0 0 0 0 0 0 0 0 0 0 0 0 0 0 0 0 0 0 0 0 0 0 0 0 0 0

GFSFLT1_con_sbcape_105.txt.gz
CAPE
16 116 320 207 316 476 656 611 676 543 1230 1498 1520 1415 1474 1465 1327 970 707 1020 1994 1630 1179 1225 2077 1673 1498 1493 1883 1857 2183 1919 1397
238 298 64 138 265 605 639 696 766 1054 1252 1433 1372 1293 1536 1537 1296 1160 1412 426 1618 1777 1314 2120 1981 1380 1495 1533 1532 1784 2062 1784 2094
747 493 227 253 276 366 425 675 782 1084 1125 1213 1169 999 1030 1142 1088 1058 1063 1213 1216 454 1054 1233 2076 1596 1716 1811 1824 1914 2029 2296 2317
787 497 358 249 444 335 644 852 789 970 935 1615 1172 1055 950 833 661 586 781 599 708 974 948 1148 1403 1665 1708 1590 1898 1903 1978 2823 1968
879 665 475 242 289 579 1369 1304 1268 1254 1698 1262 1299 1194 1295 1124 955 689 523 649 647 1079 1234 1390 1430 1794 1654 1367 1691 1785 1978 2284 1278
1066 1088 618 356 295 781 1427 1857 1667 1393 1419 1168 1229 1370 1305 1831 991 827 715 572 664 911 1291 1312 1439 1415 1415 1559 1680 1399 1769 2020 1516
1205 1019 1012 1038 869 696 662 575 786 1031 1093 877 1058 758 1249 1823 1441 900 941 1971 778 910 1405 1375 1219 1663 1884 1652 1554 1629 1432 1588 1760
1713 1489 1093 1068 1230 1447 1530 1249 1062 789 398 387 311 412 884 836 1885 1530 1413 1386 1611 946 1018 1141 1210 1217 2236 1377 1338 714 1282 1519 1721
1139 1110 1211 1318 1295 1278 1465 1460 1288 1141 779 637 387 364 515 951 1104 1189 1479 1413 1396 1416 1283 1257 1308 1337 1527 1463 1282 0 0 0 1815
894 1279 1082 1240 1078 1134 1204 1330 1303 1165 859 540 619 291 280 272 350 240 386 587 1095 1161 1186 1269 1431 1262 1300 1120 310 0 0 0 1130
882 726 988 886 654 611 669 1278 1472 1339 1184 1007 687 674 365 256 144 161 227 177 124 234 548 927 942 824 277 95 0 0 0 0 1442
705 484 134 28 30 6 5 51 550 986 919 770 700 570 528 379 296 166 21 11 54 97 247 433 272 165 88 0 0 0 0 0 1174
231 12 11 9 6 7 2 3 3 2 3 4 3 2 44 50 76 1 1 0 0 0 3 2 16 0 0 0 0 0 0 0 328
9 8 8 6 2 5 6 3 1 5 1 3 3 0 0 0 0 0 5 5 29 6 1 0 0 0 0 0 0 0 0 0 0
9 5 3 1 1 2 0 0 0 1 1 0 1 0 5 0 0 0 2 28 3 2 1 0 0 0 0 0 0 0 0 0 0
5 2 1 0 0 2 3 0 0 0 0 0 0 6 16 14 3 7 20 13 15 2 0 0 0 0 0 0 0 0 0 0 0
8 4 0 0 0 0 0 0 0 0 0 0 0 0 4 1 0 4 9 19 4 5 18 17 13 7 0 0 0 0 0 0 0
21 7 1 0 0 0 0 0 0 0 0 0 0 5 0 0 0 0 0 0 0 0 0 0 0 1 0 0 0 0 0 0 0
1 7 17 0 0 0 0 0 0 0 0 0 0 0 0 0 0 0 0 0 0 0 0 0 0 0 0 0 0 0 0 0 0
0 0 0 11 7 0 0 0 0 0 0 0 0 0 0 0 0 0 0 0 0 0 0 0 0 0 0 0 0 0 0 0 0

GFSFLT1_con_sbcape_108.txt.gz
CAPE
10 15 18 210 150 220 304 437 191 1267 2018 1816 1824 2034 2409 2457 1847 2052 1349 845 662 0 164 348 1904 2817 2810 2937 2882 3080 2853 3093 2763
22 57 0 95 153 148 148 826 542 445 1970 2199 2009 1889 2180 2481 2523 1712 2618 1314 582 107 322 470 977 2140 2764 2758 2330 2942 2711 2885 2468
153 28 43 262 174 85 116 481 533 253 757 1835 1877 1768 1849 1775 1980 2112 2458 953 269 32 40 351 40 271 2536 2645 2199 2202 2931 2159 1748
249 59 47 451 393 382 42 80 176 590 1425 1787 1614 1627 1608 1895 1522 1729 1894 1957 1421 0 225 718 13 1524 2394 2266 2147 2091 2576 2507 2614
274 262 534 382 432 691 362 322 776 401 1255 1474 1321 1034 1791 1946 1604 1346 1451 1929 1563 2329 2368 2868 2261 2490 2630 2679 2523 2580 2703 2296 1986
1360 1165 1078 642 538 162 57 0 1 489 1019 949 1370 1214 1444 1165 1744 1773 1570 1133 1496 2395 2766 2474 2160 2462 2280 2129 2057 1864 2663 2698 2793
1372 1389 1110 842 656 445 131 0 0 176 1146 1133 940 961 1603 469 2054 1541 1741 1205 1658 2299 2717 2363 2508 2037 1485 2168 2348 2027 2309 2722 1986
1590 1460 1197 1051 747 859 1490 452 491 668 421 766 1067 1065 1157 454 758 1283 1801 1541 2254 1695 2024 1594 1713 1910 2025 1726 494 0 10 1696 1967
1642 1225 1050 1348 1488 1230 1300 1277 934 690 711 741 591 421 467 707 816 773 625 783 1226 1603 1916 1754 1786 1643 1843 1378 0 0 0 0 1738
1506 1430 1477 1644 1278 1284 1611 1532 1637 1248 1381 1251 950 610 648 843 1067 725 455 593 888 796 1067 1363 1497 1709 1538 82 0 0 0 0 168
1034 1120 683 580 876 1116 1236 1378 1212 1123 1376 1150 964 809 732 431 326 187 102 134 432 525 278 341 478 188 108 16 0 0 0 0 26
669 148 7 5 4 4 2 29 656 1135 1260 1164 1085 960 561 329 276 74 93 51 72 73 106 110 1 0 0 0 0 0 0 0 1634
1 2 4 6 9 5 2 2 1 0 2 217 241 498 409 407 355 159 25 1 0 16 51 2 0 0 0 0 0 0 0 0 382
5 7 5 2 4 4 3 3 4 4 5 2 1 0 0 43 97 43 1 2 97 8 0 0 0 0 0 0 0 0 0 0 0
5 4 3 3 1 4 2 0 0 1 1 0 0 0 0 0 0 0 2 0 0 0 0 0 0 0 0 0 0 0 0 0 0
4 3 4 3 1 0 0 0 0 0 0 0 0 0 0 0 14 5 10 0 1 0 0 0 0 0 0 0 0 0 0 0 0
5 1 0 0 0 0 0 0 0 0 0 0 0 0 0 0 0 0 0 0 0 0 0 0 1 7 0 0 0 0 0 0 0
18 5 0 0 0 0 0 0 0 0 0 0 0 0 0 0 0 0 0 0 0 0 0 0 0 0 0 0 0 0 0 0 0
0 5 12 0 0 0 0 0 0 0 0 0 0 0 0 0 0 0 0 0 0 0 0 0 0 0 0 0 0 0 0 0 0
0 0 0 3 0 0 0 0 0 0 0 0 0 0 0 0 0 0 0 0 0 0 0 0 0 0 0 0 0 0 0 0 0

GFSFLT1_con_sbcape_111.txt.gz
CAPE
5 50 54 36 41 38 86 96 390 671 741 743 687 568 636 537 644 437 208 234 259 0 0 57 231 346 1082 1012 1336 1236 1571 1169 1680
0 4 35 69 55 111 86 93 580 961 774 575 917 887 970 663 576 300 315 288 134 6 0 2 225 365 750 1093 1341 1155 1297 1385 1060
0 0 0 21 51 70 178 120 377 1136 1036 664 637 1059 869 835 831 627 182 91 34 0 0 0 153 372 284 1023 863 647 1158 961 563
1 0 0 0 24 78 60 144 409 710 970 1178 906 961 793 960 1024 757 173 338 119 0 0 11 55 105 180 1033 678 1024 1109 1009 796
31 12 0 0 75 80 151 244 226 393 272 820 883 841 752 823 809 810 787 591 122 0 0 40 119 10 888 898 883 1040 657 844 1449
180 89 0 151 322 76 141 107 50 53 67 575 840 671 947 850 766 874 555 581 572 289 233 630 878 971 826 951 1173 942 1075 1258 954
388 156 37 276 261 131 157 1 0 0 0 6 358 923 797 815 770 723 724 487 355 1000 857 763 645 1027 819 771 692 82 515 1116 1099
304 168 170 264 196 100 36 0 0 2 0 35 129 266 571 401 577 657 754 942 466 1080 1139 882 747 765 752 0 0 0 0 0 602
759 687 552 567 375 259 5 0 0 0 0 1 415 186 279 311 317 367 374 397 306 409 311 329 435 511 191 0 0 1 1 0 7
32 283 286 757 864 865 692 103 0 223 158 309 233 138 163 218 356 343 330 241 308 323 223 199 144 67 0 0 0 0 0 0 0
3 3 1 7 24 23 105 802 468 538 368 338 271 233 398 487 424 179 74 58 85 219 158 133 44 1 0 0 0 0 0 0 0
4 4 2 5 5 6 4 3 291 559 524 281 340 332 359 288 134 40 26 0 0 55 16 0 0 0 0 0 0 0 0 0 0
3 1 2 4 5 3 3 4 3 0 113 201 381 363 321 260 151 50 0 0 0 1 0 0 0 0 0 0 0 0 0 0 9
1 2 1 1 5 5 6 2 0 0 5 3 3 8 172 115 32 17 7 1 0 0 0 0 0 0 0 0 0 0 0 0 0
2 1 1 1 1 1 1 1 2 2 2 1 0 0 0 0 0 0 0 0 0 0 0 0 0 0 0 0 0 0 0 0 0
1 2 1 0 0 0 0 0 0 0 1 0 0 0 0 1 0 0 0 0 0 0 0 0 0 0 0 0 0 0 0 0 0
0 0 0 0 0 0 0 0 0 0 0 0 0 0 0 0 0 0 0 0 0 0 0 0 0 0 0 0 0 0 0 0 0
0 0 0 0 0 0 0 0 0 0 0 0 0 0 0 0 0 0 0 0 0 0 0 0 0 0 0 0 0 0 0 0 0
0 0 0 0 0 0 0 0 0 0 0 0 0 0 0 0 0 0 0 0 0 0 0 0 0 0 0 0 0 0 0 0 0
0 0 0 0 0 0 0 0 0 0 0 0 0 0 0 0 0 0 0 0 0 0 0 0 0 0 0 0 0 0 0 0 0

GFSFLT1_con_sbcape_114.txt.gz
CAPE
2 43 42 2 0 49 57 85 343 268 150 119 156 150 335 224 260 106 62 17 58 12 0 72 119 418 702 647 899 615 1118 675 1126
0 0 21 18 8 13 52 77 315 303 274 162 168 137 250 222 279 210 146 84 16 0 0 0 22 361 451 559 692 788 893 822 892
0 13 64 65 56 58 28 77 285 508 337 286 257 160 301 214 200 213 95 56 94 0 0 0 0 185 372 323 725 677 677 734 385
0 13 76 67 77 103 56 99 321 552 470 277 359 420 447 276 231 186 79 8 0 0 0 0 0 54 42 200 601 538 794 660 485
0 15 6 15 91 102 95 263 556 668 657 400 293 618 385 278 249 184 0 0 38 51 0 0 0 15 56 104 541 612 508 516 1304
202 5 0 0 46 76 98 136 310 620 502 505 425 444 365 320 347 169 75 8 70 0 0 0 13 89 5 251 635 364 348 475 464
16 61 0 0 16 52 67 64 111 127 38 32 74 237 410 374 295 336 267 209 210 0 0 0 137 346 334 284 67 1 10 154 679
21 31 8 119 90 78 47 43 33 24 38 26 17 37 207 336 298 312 339 235 185 271 210 288 376 343 0 0 0 0 0 0 83
0 0 2 197 171 152 27 17 4 0 0 76 139 96 158 214 171 232 331 309 353 309 142 131 71 75 0 0 0 0 0 0 0
10 4 2 4 93 49 11 4 0 0 0 0 51 70 95 116 108 124 127 218 219 284 131 49 20 0 0 0 0 0 0 0 0
2 1 3 1 3 4 2 1 0 8 0 2 165 112 94 125 146 126 47 65 165 238 104 85 8 0 0 0 0 0 0 0 0
5 6 13 7 6 3 4 4 1 146 104 177 173 136 155 147 113 31 7 11 41 34 4 1 1 0 0 0 0 0 0 0 0
4 2 3 2 5 1 3 1 2 0 46 161 160 101 64 60 30 12 4 9 15 1 0 0 0 0 0 0 0 0 0 0 0
1 2 1 1 0 1 2 1 2 1 1 2 3 49 74 28 16 0 0 0 1 0 0 0 0 0 0 0 0 0 0 0 0
2 1 0 0 1 1 0 0 0 2 1 1 1 1 2 1 2 1 0 0 0 0 0 0 0 0 0 0 0 0 0 0 0
0 0 0 0 0 0 0 0 0 0 1 1 1 1 1 1 0 0 0 0 0 0 0 0 0 0 0 0 0 0 0 0 0
0 0 0 0 0 0 0 0 0 0 0 0 0 2 1 0 1 0 0 1 0 0 0 0 0 0 0 0 0 0 0 0 0
0 0 0 0 0 0 0 0 0 0 0 0 0 0 0 0 0 0 0 0 0 0 0 0 0 0 0 0 0 0 0 0 0
0 0 0 0 0 0 0 0 0 0 0 0 0 0 0 0 0 0 0 0 0 0 0 0 0 0 0 0 0 0 0 0 0
0 0 0 0 0 0 0 0 0 0 0 0 0 0 0 0 0 0 0 0 0 0 0 0 0 0 0 0 0 0 0 0 0

GFSFLT1_con_sbcape_117.txt.gz
CAPE
0 13 1 6 13 27 28 63 1 79 0 107 10 90 194 156 46 18 8 8 4 8 33 59 77 242 440 577 641 323 676 559 858
15 16 0 12 20 55 63 88 92 66 0 20 73 2 112 99 120 102 54 17 0 3 3 0 0 296 383 503 468 595 592 519 688
4 0 11 2 8 60 80 94 185 128 48 0 75 54 87 76 135 145 86 54 10 0 0 0 0 170 264 307 346 602 489 522 355
8 1 20 9 10 52 79 130 193 210 176 89 80 56 95 120 129 122 39 0 0 6 0 0 0 0 127 115 419 443 327 455 387
0 0 12 35 42 77 59 91 147 245 302 197 193 165 120 172 150 144 58 0 0 0 0 0 0 0 23 0 266 217 303 437 686
45 1 47 23 41 72 86 74 162 231 422 278 245 280 295 263 174 179 97 0 0 0 0 0 0 15 4 1 163 385 312 276 302
30 36 16 5 17 66 134 203 304 342 468 386 304 341 399 310 229 174 162 44 0 0 0 0 0 0 50 101 190 67 81 201 416
29 44 68 127 5 58 147 203 314 521 493 343 352 332 402 366 310 215 203 132 117 107 22 0 0 87 35 0 0 0 0 2 130
0 2 24 44 101 105 124 156 177 241 175 162 157 250 376 394 280 234 214 225 208 224 97 95 26 69 0 0 0 0 1 0 0
1 1 2 5 5 11 2 4 0 0 0 2 52 71 73 161 160 154 198 203 259 172 99 24 0 0 0 0 0 0 0 0 0
6 0 5 4 1 4 2 2 1 0 0 0 7 21 29 101 94 95 117 136 162 119 90 70 0 0 0 0 0 0 0 0 0
3 2 2 3 2 2 3 1 1 0 1 0 1 47 86 60 70 46 28 35 39 29 74 67 1 1 0 0 0 0 0 0 0
2 2 1 1 1 1 1 0 1 69 63 159 104 77 82 79 47 11 4 2 6 1 1 1 0 1 0 0 0 0 0 0 0
0 0 0 0 0 0 0 1 1 1 1 2 0 142 58 22 2 5 3 1 2 2 0 0 0 0 0 0 0 0 0 0 0
0 0 0 0 0 0 0 0 1 2 0 1 1 1 2 24 17 2 1 1 0 0 0 0 0 0 0 0 0 0 0 0 0
0 0 0 0 0 0 0 0 0 0 1 1 1 0 2 1 1 1 3 1 1 0 0 0 0 0 0 0 0 0 0 0 0
0 0 0 0 0 0 0 0 0 0 0 0 1 1 2 1 3 5 5 5 2 0 0 0 0 0 0 0 0 0 0 0 0
0 0 0 0 0 0 0 0 0 0 0 0 0 0 0 1 1 0 0 1 2 2 0 0 0 0 0 0 0 0 0 0 0
0 0 0 0 0 0 0 0 0 0 0 0 0 0 0 0 0 0 0 0 1 0 0 0 0 0 0 0 0 0 0 0 0
0 0 0 0 0 0 0 0 0 0 0 0 0 0 0 0 0 0 0 0 0 0 0 0 0 0 0 0 0 0 0 0 0

GFSFLT1_con_sbcape_120.txt.gz
CAPE
0 0 0 0 0 0 0 0 0 0 0 0 53 49 61 67 54 77 75 58 64 88 92 72 161 282 549 663 696 534 675 629 731
9 4 4 9 0 0 1 0 27 31 0 0 24 39 85 76 43 46 39 3 4 26 26 16 71 138 459 534 630 709 565 566 581
0 0 0 22 19 0 2 42 42 39 0 9 40 16 55 93 103 91 80 32 22 0 0 10 37 102 331 360 489 626 605 675 604
0 16 17 33 30 24 22 66 83 60 31 10 24 39 27 63 66 87 92 82 58 0 0 0 0 14 70 149 266 611 679 667 600
0 18 21 44 53 60 60 94 110 154 109 69 53 52 54 62 0 84 93 2 1 0 0 0 0 0 0 63 90 476 379 635 957
0 4 43 50 55 73 92 129 170 205 209 179 113 92 85 114 114 115 119 23 0 0 0 0 0 0 0 44 54 300 191 290 523
15 14 37 17 59 75 94 122 128 200 243 299 215 214 202 202 205 207 179 83 28 0 0 0 0 0 30 0 25 280 263 281 523
52 69 93 24 33 52 82 127 113 163 221 402 285 271 299 285 256 263 233 177 95 61 0 0 0 0 51 56 11 0 0 8 183
1 11 23 182 94 155 148 174 172 298 423 413 378 242 328 316 210 249 274 221 173 148 151 14 0 122 67 0 0 0 1 1 5
6 3 5 38 74 37 57 5 19 34 17 73 79 79 101 211 196 176 144 179 168 188 160 52 105 4 0 0 0 0 0 0 0
5 5 4 4 4 3 11 3 0 0 0 6 27 37 49 60 52 114 55 87 131 126 130 15 5 0 0 0 0 0 0 0 0
3 4 4 2 2 2 2 1 1 8 0 0 0 11 29 50 37 10 36 36 33 43 86 66 20 0 1 0 0 0 0 0 0
1 1 2 1 1 2 2 1 1 25 55 33 32 32 19 21 55 40 39 1 0 1 1 1 1 1 0 1 0 0 0 0 0
0 0 0 0 0 1 1 1 1 13 2 1 1 0 45 37 50 29 4 1 1 1 1 0 1 0 1 0 0 0 0 1 0
0 0 0 0 0 0 0 0 1 1 1 2 2 0 12 12 5 2 1 1 0 1 3 1 1 0 0 0 0 0 0 0 0
0 0 0 0 0 0 0 0 0 0 2 1 1 1 1 1 0 1 1 1 1 1 1 0 0 0 0 0 0 0 0 0 0
0 0 0 0 0 0 0 0 0 0 2 1 0 1 1 1 3 1 1 1 1 1 1 9 5 0 0 0 0 0 0 0 0
0 0 0 0 0 0 0 0 0 0 0 0 0 0 1 1 6 2 4 4 5 4 4 6 0 3 0 0 0 0 0 0 0
0 0 0 0 0 0 0 0 0 0 0 0 0 0 0 0 0 0 0 1 2 2 1 7 0 0 0 0 0 0 0 0 0
0 0 0 0 0 0 0 0 0 0 0 0 0 0 0 0 0 0 0 0 0 0 0 0 0 0 0 0 0 0 0 0 0

GFSFLT1_con_sbcape_123.txt.gz
CAPE
116 64 0 10 122 187 242 239 285 249 258 326 360 574 1006 1227 1338 1110 1139 1342 1149 1100 1135 1215 1514 1562 1718 1687 1907 2001 2240 1933 1793
49 85 39 24 93 184 256 277 331 312 316 377 369 529 940 1191 1201 1213 1030 1220 1141 878 1013 948 1002 1169 1384 1693 1720 1857 1906 1515 1928
69 77 35 33 46 149 192 248 310 327 351 355 330 437 771 924 1000 1154 1153 1149 1051 959 870 779 835 887 1079 1381 1657 1798 1986 2131 1911
157 102 135 107 44 132 230 199 238 265 372 364 316 378 538 818 875 965 982 984 1054 1156 900 610 514 780 855 1223 1374 1540 1827 2088 1915
85 136 171 113 80 138 234 257 261 246 363 404 364 412 507 549 699 804 784 940 942 1072 1038 808 760 380 447 542 997 1273 1564 1611 1311
131 137 120 104 99 115 194 239 257 363 446 428 429 455 482 486 535 638 653 811 892 878 851 714 409 129 225 310 297 912 1430 1738 1496
199 204 117 97 142 213 263 393 441 559 609 230 648 516 501 554 586 571 618 737 910 887 805 704 399 266 107 255 701 693 1002 1423 1374
211 325 247 238 317 287 327 480 520 461 575 380 387 779 472 476 1001 811 829 980 1062 1044 978 771 732 371 219 524 990 658 860 1049 1257
15 14 15 313 282 244 266 434 591 551 332 339 761 339 634 838 1112 1030 1126 1228 1340 1365 1276 1267 1003 720 559 585 471 0 1 0 472
8 7 6 9 8 144 400 314 328 786 885 897 662 920 831 840 802 779 418 588 1381 1010 1453 1495 1268 1003 900 623 104 0 0 0 6
3 4 5 4 4 4 4 3 103 213 314 531 355 507 254 220 564 428 267 191 200 132 997 525 1246 819 293 29 0 0 0 0 0
4 4 5 6 4 5 4 3 2 16 216 287 112 87 94 85 105 77 93 110 118 102 231 181 33 119 211 49 1 1 0 1 4
3 3 2 3 3 4 5 5 5 2 131 217 129 228 108 53 59 101 90 79 50 8 119 86 16 3 4 0 2 0 0 1 0
1 2 1 1 2 4 5 3 5 35 8 11 15 41 101 120 209 253 179 17 3 2 1 1 1 2 1 0 0 0 0 0 1
1 0 0 0 0 0 3 3 2 2 1 5 5 11 3 25 41 61 38 2 2 2 2 1 1 1 1 0 0 0 0 1 3
1 0 0 0 0 0 0 6 6 6 6 6 4 2 2 2 3 1 2 2 4 1 2 2 3 1 0 0 0 0 0 0 0
0 0 0 0 0 0 0 1 4 6 5 2 3 2 3 3 1 1 2 2 2 2 7 8 4 3 4 3 2 1 0 0 0
0 0 0 0 0 0 0 0 0 0 0 0 1 3 2 2 2 6 4 3 5 3 3 2 5 5 3 0 0 0 0 0 0
0 0 0 0 0 0 0 0 0 0 0 0 0 0 0 0 1 1 3 4 3 1 3 1 0 0 0 0 0 0 0 0 0
0 0 0 0 0 0 0 0 0 0 0 0 0 0 0 0 0 0 0 0 0 0 0 0 0 0 0 0 0 0 0 0 0